     2              OBSERVATION DATA    G (GPS)             RINEX VERSION / TYPE
RGRINEXO V2.5.5 UX AUSLIG 27-JUL-03 10:01                   PGM / RUN BY / DATE
Australian Regional GPS Network (ARGN)                      COMMENT
MAWSON Antarctica AUS64                                     COMMENT
0.000000000000 HARDWARE CALIBRATION (S)                     COMMENT
0.000000000000 CLOCK OFFSET (S)                             COMMENT
BIT 2 OF LLI (+4) FLAGS DATA COLLECTED UNDER "AS" CONDITION COMMENT
maw1                                                        MARKER NAME
66004M001                                                   MARKER NUMBER
auslig auslig                                               OBSERVER / AGENCY
C119U AOA ICS-4000Z ACT 00.12.06 / 3.3.32.4                 REC # / TYPE / VERS
275 AOAD/M_T DOME                                           ANT # / TYPE
  1111287.0000  2168911.0000 -5874492.0000                  APPROX POSITION XYZ
        0.0035        0.0000        0.0000                  ANTENNA: DELTA H/E/N
     1     1                                                WAVELENGTH FACT L1/2
     5    C1    L1    L2    P2    P1                        # / TYPES OF OBSERV
    30                                                      INTERVAL
  2003     7    27     9     0    0.000000                  TIME OF FIRST OBS
                                                            END OF HEADER
 03  7 27  9  0  0.0000000  0 11 02 03 08 15 16 18 21 23 26 27 31
                 -14231734.374 3 -11089664.950 6  21930149.613
  21930147.144   -22815013.843 5 -17777927.796 8  20521999.088
  20521998.360    -7599452.935 2  -5921653.453 5  22757343.248
  22757342.924   -18465961.608 5 -14389049.714 7  21262959.833
  21262958.868    -5813657.148 2  -4530127.364 5  23459120.506
  23459119.367    -6558076.574 2  -5110189.160 5  23029712.346
  23029712.131    -6641414.800 2  -5175117.564 5  23490894.076
  23490894.696    -2145223.034 1  -1671599.756 4  24452956.186
  24452953.431    -1147291.765 1   -893993.036 5  24705478.210
  24705479.835   -11483301.770 3  -8948029.507 6  21791983.047
  21791982.983   -16072545.739 5 -12524057.692 6  21629742.510    21629741.779
 03  7 27  9  0 30.0000000  0 11 02 03 08 15 16 18 21 23 26 27 31
                 -14129212.498 3 -11009777.720 6  21949658.675
  21949656.527   -22823506.581 5 -17784545.440 8  20520382.893
  20520382.227    -7645297.295 2  -5957376.219 5  22748619.364
  22748618.941   -18452898.841 5 -14378870.854 7  21265445.445
  21265444.519    -5702814.485 2  -4443756.207 5  23480212.609
  23480211.416    -6618024.947 2  -5156902.443 5  23018304.514
  23018304.557    -6547191.512 2  -5101696.811 5  23508824.251
  23508825.112    -2262777.181 1  -1763199.886 5  24430584.458
  24430583.837    -1220673.972 1   -951173.774 5  24691522.840
  24691519.324   -11457204.824 3  -8927694.059 6  21796949.733
  21796949.029   -16140366.313 5 -12576904.641 6  21616836.351    21616835.764
 03  7 27  9  1  0.0000000  0 11 02 03 08 15 16 18 21 23 26 27 31
                 -14026321.013 3 -10929602.521 6  21969238.230
  21969236.181   -22831486.446 5 -17790763.515 8  20518864.395
  20518863.737    -7690614.817 2  -5992688.451 5  22739995.748
  22739995.412   -18439254.665 5 -14368238.914 7  21268041.736
  21268040.816    -5591781.787 2  -4357237.212 5  23501341.766
  23501340.958    -6677454.523 2  -5203210.600 5  23006994.901
  23006995.248    -6452664.495 2  -5028039.414 5  23526812.021
  23526812.861    -2380148.019 1  -1854657.748 5  24408249.170
  24408246.742    -1293663.280 1  -1008047.895 5  24677629.970
  24677630.952   -11430459.222 3  -8906853.308 6  21802038.629
  21802038.134   -16207841.386 5 -12629482.557 6  21603996.241    21603995.749
 03  7 27  9  1 30.0000000  0 11 02 03 08 15 16 18 21 23 26 27 31
                 -13923052.288 3 -10849133.422 6  21988889.539
  21988887.322   -22838942.796 5 -17796573.652 8  20517445.445
  20517444.811    -7735393.695 2  -6027581.110 5  22731474.635
  22731474.106   -18425019.594 5 -14357146.526 7  21270750.498
  21270749.435    -5480550.621 2  -4270563.601 5  23522508.024
  23522506.924    -6736355.502 2  -5249107.417 5  22995786.727
  22995786.271    -6357825.079 2  -4954138.364 5  23544859.238
  23544859.919    -2497320.247 1  -1945960.468 5  24385952.769
  24385948.697    -1366247.333 1  -1064606.945 5  24663815.591
  24663815.461   -11403055.954 3  -8885500.037 6  21807253.792
  21807252.895   -16274958.948 5 -12681781.908 6  21591224.149    21591223.595
 03  7 27  9  2  0.0000000  0 11 02 03 08 15 16 18 21 23 26 27 31
                 -13819409.476 3 -10768372.854 6  22008612.531
  22008610.288   -22845876.219 5 -17801976.388 8  20516126.112
  20516125.535    -7779633.061 2  -6062053.422 5  22723056.412
  22723055.969   -18410195.035 5 -14345594.933 7  21273571.601
  21273570.587    -5369123.638 2  -4183737.506 5  23543712.701
  23543710.985    -6794725.391 2  -5294590.499 5  22984679.193
  22984679.323    -6262677.349 2  -4879996.841 5  23562964.710
  23562965.510    -2614292.329 1  -2037107.552 5  24363694.004
  24363690.175    -1438423.131 1  -1120847.592 5  24650080.795
  24650081.894   -11374997.048 3  -8863636.050 6  21812592.774
  21812592.329   -16341718.338 5 -12733802.316 6  21578520.415    21578519.812
 03  7 27  9  2 30.0000000  0 11 02 03 08 15 16 18 21 23 26 27 31
                 -13715386.718 3 -10687316.341 6  22028407.399
  22028405.080   -22852277.526 5 -17806964.414 8  20514908.071
  20514907.295    -7823322.368 2  -6096097.051 5  22714742.582
  22714741.718   -18394773.341 5 -14333578.172 7  21276506.393
  21276505.184    -5257493.866 2  -4096753.279 5  23564954.631
  23564953.334    -6852553.715 2  -5339651.949 5  22973675.261
  22973674.826    -6167215.931 2  -4805611.297 5  23581130.340
  23581131.360    -2731051.343 1  -2128088.537 5  24341475.299
  24341472.146    -1510180.842 1  -1176762.771 5  24636427.636
  24636426.892   -11346274.383 3  -8841254.771 6  21818059.020
  21818058.012   -16408108.963 5 -12785535.213 7  21565886.673    21565886.062
 03  7 27  9  3  0.0000000  0 11 02 03 08 15 16 18 21 23 26 27 31
                 -13610989.140 3 -10605967.560 6  22048273.515
  22048271.365   -22858149.499 5 -17811539.938 8  20513790.626
  20513789.818    -7866463.063 2  -6129713.165 5  22706532.974
  22706532.426   -18378757.881 5 -14321098.666 7  21279554.150
  21279553.010    -5145666.753 2  -4009615.274 5  23586234.741
  23586233.691    -6909839.982 2  -5384290.642 5  22962774.145
  22962774.291    -6071446.104 2  -4730985.732 5  23599355.091
  23599355.962    -2847596.759 1  -2218902.998 5  24319296.123
  24319295.403    -1581520.059 1  -1232351.813 5  24622851.407
  24622850.342   -11316892.336 3  -8818359.595 6  21823649.434
  21823649.326   -16474132.794 5 -12836982.334 7  21553322.723    21553322.234
 03  7 27  9  3 30.0000000  0 11 02 03 08 15 16 18 21 23 26 27 31
                 -13506229.799 3 -10524337.009 6  22068208.664
  22068206.793   -22863502.034 5 -17815710.831 8  20512772.148
  20512771.380    -7909063.733 2  -6162908.563 5  22698426.244
  22698426.186   -18362159.218 5 -14308164.655 7  21282712.694
  21282711.675    -5033654.755 2  -3922333.481 5  23607550.302
  23607548.073    -6966592.135 2  -5428513.070 5  22951974.291
  22951974.667    -5975379.830 2  -4656129.363 5  23617635.998
  23617637.033    -2963935.775 1  -2309556.924 5  24297160.425
  24297155.030    -1652448.519 1  -1287620.684 5  24609354.151
  24609353.650   -11286862.478 3  -8794959.892 6  21829364.913
  21829363.752   -16539798.114 5 -12888150.134 7  21540827.095    21540826.426
 03  7 27  9  4  0.0000000  0 11 02 03 08 15 16 18 21 23 26 27 31
                 -13401121.274 3 -10442434.377 6  22088210.426
  22088208.210   -22868344.591 5 -17819484.285 8  20511850.658
  20511849.921    -7951132.928 2  -6195689.835 5  22690421.040
  22690420.423   -18344988.215 5 -14294784.776 7  21285980.450
  21285979.116    -4921469.216 2  -3834916.375 5  23628898.394
  23628896.831    -7022818.303 2  -5472325.759 5  22941274.822
  22941274.988    -5879028.179 2  -4581049.777 5  23635971.085
  23635972.190    -3080074.203 1  -2400054.525 5  24275058.144
  24275055.319    -1722973.717 1  -1342575.423 5  24595933.939
  24595933.313   -11256195.152 3  -8771063.335 6  21835199.938
  21835199.773   -16605113.604 5 -12939045.327 7  21528397.944    21528397.241
 03  7 27  9  4 30.0000000  0 11 02 03 08 15 16 18 21 23 26 27 31
                 -13295648.226 3 -10360247.638 6  22108281.335
  22108279.078   -22872659.403 5 -17822846.506 8  20511029.538
  20511028.836    -7992650.976 2  -6228041.601 5  22682520.763
  22682520.036   -18327227.710 5 -14280945.424 7  21289360.153
  21289358.956    -4809094.297 2  -3747351.609 5  23650282.710
  23650280.650    -7078498.313 2  -5515712.683 5  22930679.577
  22930679.470    -5782378.459 2  -4505738.604 5  23654363.010
  23654364.045    -3195989.888 1  -2490378.145 5  24252999.894
  24252998.771    -1793075.243 1  -1397199.964 5  24582594.058
  24582593.383   -11224874.596 3  -8746657.723 6  21841160.777
  21841159.885   -16670059.717 5 -12989652.625 7  21516039.071    21516038.498
 03  7 27  9  5  0.0000000  0 11 02 03 08 15 16 18 21 23 26 27 31
                 -13189813.532 3 -10277779.016 6  22128420.790
  22128418.935   -22876446.469 5 -17825797.474 8  20510308.888
  20510308.227    -8033616.448 2  -6259962.696 5  22674725.268
  22674724.110   -18308878.861 5 -14266647.633 7  21292851.739
  21292850.609    -4696532.044 2  -3659640.807 5  23671702.710
  23671701.115    -7133630.171 2  -5558672.565 5  22920188.512
  22920188.158    -5685431.455 2  -4430195.606 5  23672811.222
  23672812.098    -3311680.614 1  -2580526.600 5  24230984.819
  24230982.304    -1862750.990 1  -1451492.801 5  24569334.555
  24569334.361   -11192901.491 3  -8721743.605 6  21847244.554
  21847244.199   -16734635.409 5 -13039971.311 7  21503750.703    21503750.005
 03  7 27  9  5 30.0000000  0 11 02 03 08 15 16 18 21 23 26 27 31
                 -13083630.083 3 -10195038.809 6  22148626.968
  22148624.969   -22879715.635 5 -17828344.909 8  20509686.937
  20509686.167    -8074037.807 2  -6291459.805 5  22667033.155
  22667032.303   -18289952.153 5 -14251899.598 7  21296453.389
  21296452.304    -4583794.831 2  -3571793.797 5  23693156.640
  23693154.664    -7188221.342 2  -5601211.064 5  22909800.171
  22909799.534    -5588199.437 2  -4354430.182 5  23691314.253
  23691314.620    -3427152.458 1  -2670504.612 5  24209010.321
  24209008.651    -1932007.771 1  -1505459.002 5  24556158.042
  24556154.948   -11160287.127 3  -8696329.882 6  21853451.453
  21853450.468   -16798849.068 5 -13090007.973 7  21491531.236    21491530.495
 03  7 27  9  6  0.0000000  0 11 02 03 08 15 16 18 21 23 26 27 31
                 -12977093.325 3 -10112023.137 6  22168900.195
  22168898.034   -22882459.637 5 -17830483.038 8  20509164.674
  20509163.907    -8113907.173 2  -6322526.817 5  22659446.144
  22659445.552   -18270441.782 5 -14236696.708 7  21300166.141
  21300164.944    -4470877.897 2  -3483806.617 5  23714643.546
  23714641.782    -7242263.156 2  -5643321.495 5  22899516.217
  22899515.917    -5490678.850 2  -4278439.956 5  23709871.638
  23709872.743    -3542394.984 1  -2760303.791 5  24187081.188
  24187078.724    -2000836.914 1  -1559092.109 5  24543057.457
  24543056.480   -11127026.617 3  -8670412.584 6  21859780.274
  21859779.778   -16862692.290 5 -13139755.829 7  21479382.153    21479381.599
 03  7 27  9  6 30.0000000  0 11 02 03 08 15 16 18 21 23 26 27 31
                 -12870209.782 3 -10028737.434 6  22189239.648
  22189237.215   -22884681.912 5 -17832214.759 8  20508741.828
  20508741.148    -8153226.513 3  -6353165.426 5  22651964.106
  22651963.400   -18250352.107 5 -14221042.494 7  21303989.214
  21303987.975    -4357786.598 2  -3395683.643 5  23736164.529
  23736162.379    -7295756.447 2  -5685004.433 5  22889336.136
  22889336.611    -5392874.864 1  -4202228.880 5  23728482.291
  23728483.951    -3657408.377 1  -2849924.650 5  24165193.424
  24165192.454    -2069239.107 1  -1612392.479 5  24530040.539
  24530038.999   -11093124.054 3  -8643995.067 6  21866232.280
  21866230.993   -16926167.396 5 -13189216.993 7  21467303.223    21467302.723
 03  7 27  9  7  0.0000000  0 11 02 03 08 15 16 18 21 23 26 27 31
                 -12762968.571 3  -9945172.899 6  22209647.145
  22209644.648   -22886369.201 5 -17833529.583 8  20508420.858
  20508420.013    -8191980.719 2  -6383363.529 5  22644589.263
  22644588.887   -18229670.785 5 -14204927.242 7  21307924.730
  21307923.656    -4244509.761 1  -3307416.095 5  23757720.404
  23757718.497    -7348686.469 2  -5726248.498 5  22879263.840
  22879264.277    -5294777.668 1  -4125789.411 5  23747150.426
  23747150.734    -3772175.882 1  -2939353.915 5  24143355.290
  24143352.385    -2137198.350 1  -1665347.448 5  24517109.110
  24517110.098   -11058568.230 3  -8617068.507 6  21872807.051
  21872806.933   -16989259.624 5 -13238379.782 7  21455297.327    21455296.731
 03  7 27  9  7 30.0000000  0 11 02 03 08 15 16 18 21 23 26 27 31
                 -12655388.913 3  -9861344.727 6  22230118.960
  22230116.114   -22887537.263 5 -17834439.785 8  20508198.649
  20508197.841    -8230184.742 2  -6413132.884 5  22637319.432
  22637318.673   -18208414.850 5 -14188364.186 7  21311969.619
  21311968.512    -4131065.574 1  -3219018.094 5  23779308.535
  23779306.223    -7401067.457 2  -5767064.821 5  22869296.067
  22869296.605    -5196406.609 1  -4049136.956 5  23765869.333
  23765869.966    -3886709.922 1  -3028601.141 5  24121559.622
  24121558.002    -2204729.084 1  -1717968.558 5  24504260.711
  24504256.561   -11023376.611 3  -8589646.547 6  21879504.831
  21879503.533   -17051983.824 5 -13287255.812 7  21443361.225    21443360.706
 03  7 27  9  8  0.0000000  0 11 02 03 08 15 16 18 21 23 26 27 31
                 -12547458.406 3  -9777243.068 6  22250657.399
  22250654.513   -22888171.777 5 -17834934.215 8  20508077.859
  20508077.005    -8267822.725 2  -6442461.082 5  22630157.067
  22630156.331   -18186570.651 5 -14171342.750 7  21316126.424
  21316125.451    -4017442.085 1  -3130480.405 5  23800930.127
  23800927.969    -7452882.167 2  -5807439.654 5  22859435.784
  22859435.745    -5097750.231 1  -3972263.038 5  23784644.239
  23784644.754    -4000992.943 1  -3117652.862 5  24099812.193
  24099810.965    -2271814.547 1  -1770242.851 5  24491490.683
  24491491.650   -10987534.982 3  -8561717.833 6  21886324.478
  21886324.232   -17114323.825 5 -13335832.406 7  21431498.170    21431497.644
 03  7 27  9  8 30.0000000  0 11 02 03 08 15 16 18 21 23 26 27 31
                 -12439200.833 3  -9692886.461 6  22271258.543
  22271255.585   -22888293.546 5 -17835029.034 8  20508054.616
  20508053.806    -8304914.260 2  -6471363.480 5  22623098.582
  22623097.860   -18164160.062 5 -14153879.869 7  21320390.926
  21320389.964    -3903661.509 1  -3041820.179 5  23822581.897
  23822579.655    -7504150.155 2  -5847388.743 5  22849680.056
  22849680.340    -4998826.315 1  -3895178.793 5  23803468.781
  23803469.086    -4115042.003 1  -3206522.249 5  24078109.575
  24078107.615    -2338472.765 1  -1822184.176 5  24478806.994
  24478805.556   -10951067.050 3  -8533301.241 6  21893264.879
  21893263.881   -17176299.150 5 -13384124.724 7  21419704.573    21419704.216
 03  7 27  9  9  0.0000000  0 11 02 03 08 15 16 18 21 23 26 27 31
                 -12330611.056 3  -9608270.973 6  22291922.104
  22291919.144   -22887894.601 5 -17834718.127 8  20508130.485
  20508129.700    -8341450.071 2  -6499832.870 5  22616146.058
  22616145.133   -18141176.501 5 -14135970.662 7  21324764.587
  21324763.597    -3789718.177 1  -2953033.089 5  23844264.456
  23844261.964    -7554861.237 2  -5886903.967 5  22840030.067
  22840029.984    -4899634.196 1  -3817885.718 5  23822342.835
  23822344.120    -4228845.321 1  -3295199.938 5  24056453.493
  24056451.111    -2404693.934 1  -1873785.061 5  24466206.187
  24466204.892   -10913965.937 3  -8504391.270 6  21900324.160
  21900324.033   -17237901.030 5 -13432126.250 7  21407982.169    21407981.704
 03  7 27  9  9 30.0000000  0 11 02 03 08 15 16 18 21 23 26 27 31
                 -12221698.745 3  -9523404.263 6  22312647.470
  22312645.003   -22886981.684 5 -17834006.749 8  20508304.165
  20508303.427    -8377435.567 3  -6527873.390 5  22609297.973
  22609297.773   -18117627.233 5 -14117620.547 7  21329245.892
  21329244.772    -3675621.660 1  -2864126.900 5  23865976.117
  23865975.202    -7605019.926 2  -5925988.628 5  22830485.189
  22830485.394    -4800183.110 1  -3740391.112 5  23841268.471
  23841268.697    -4342407.091 1  -3383689.716 5  24034843.283
  24034841.907    -2470482.367 1  -1925048.908 5  24453687.821
  24453683.494   -10876240.235 3  -8474994.702 6  21907503.983
  21907502.866   -17299134.490 5 -13479840.652 7  21396329.872    21396329.324
 03  7 27  9 10  0.0000000  0 11 02 03 08 15 16 18 21 23 26 27 31
                 -12112455.368 3  -9438279.673 6  22333435.878
  22333433.461   -22885543.498 5 -17832886.099 8  20508577.904
  20508577.087    -8412858.610 3  -6555475.899 5  22602557.423
  22602556.621   -18093502.391 5 -14098821.981 7  21333836.710
  21333835.649    -3561361.834 1  -2775093.281 5  23887718.447
  23887718.062    -7654612.931 2  -5964632.406 5  22821047.596
  22821048.017    -4700464.297 1  -3662688.276 5  23860244.076
  23860245.232    -4455711.669 1  -3471978.867 5  24013282.741
  24013281.157    -2535823.712 1  -1975964.008 5  24441252.435
  24441253.132   -10837880.003 3  -8445103.689 6  21914803.053
  21914802.655   -17359987.056 5 -13527258.348 7  21384750.115    21384749.738
 03  7 27  9 10 30.0000000  0 11 02 03 08 15 16 18 21 23 26 27 31
                 -12002882.978 3  -9352898.659 6  22354286.854
  22354284.392   -22883579.492 5 -17831355.681 8  20508951.597
  20508950.738    -8447716.860 3  -6582638.013 5  22595923.832
  22595923.424   -18068802.455 5 -14079575.322 7  21338537.019
  21338536.082    -3446940.595 1  -2685933.777 5  23909493.617
  23909490.820    -7703638.369 2  -6002834.018 5  22811718.629
  22811718.847    -4600478.673 1  -3584777.271 5  23879271.598
  23879271.886    -4568755.319 1  -3560064.681 5  23991770.828
  23991768.592    -2600715.743 1  -2026529.106 4  24428904.274
  24428903.776   -10798885.995 3  -8414718.755 6  21922224.146
  21922222.794   -17420456.756 5 -13574377.640 7  21373243.203    21373242.796
 03  7 27  9 11  0.0000000  0 11 02 03 08 15 16 18 21 23 26 27 31
                 -11892981.199 3  -9267261.037 6  22375200.599
  22375198.122   -22881086.706 5 -17829413.278 8  20509425.945
  20509425.071    -8482006.223 3  -6609356.998 5  22589399.014
  22589398.404   -18043525.137 5 -14059878.762 7  21343347.211
  21343346.077    -3332357.786 1  -2596648.791 5  23931296.422
  23931295.462    -7752090.864 2  -6040589.222 5  22802498.417
  22802498.505    -4500226.866 1  -3506659.400 5  23898348.425
  23898349.896    -4681531.668 1  -3647942.402 5  23970309.519
  23970308.663    -2665152.907 1  -2076739.904 4  24416641.819
  24416640.830   -10759256.835 3  -8383838.887 6  21929764.495
  21929763.937   -17480539.022 5 -13621195.104 7  21361810.088    21361809.474
 03  7 27  9 11 30.0000000  0 11 02 03 08 15 16 18 21 23 26 27 31
                 -11782751.479 3  -9181367.751 6  22396176.520
  22396174.479   -22878064.247 5 -17827058.098 8  20510001.039
  20510000.328    -8515724.258 3  -6635630.681 5  22582982.649
  22582981.873   -18017670.475 5 -14039732.201 7  21348266.947
  21348265.921    -3217612.833 1  -2507236.978 5  23953132.499
  23953130.920    -7799967.409 2  -6077895.558 5  22793387.624
  22793387.693    -4399707.185 2  -3428331.591 5  23917475.544
  23917476.631    -4794036.104 1  -3735608.173 5  23948900.939
  23948899.447    -2729131.886 1  -2126593.567 5  24404465.555
  24404467.523   -10718992.985 3  -8352464.318 6  21937427.066
  21937426.104   -17540231.335 5 -13667708.504 7  21350450.837    21350450.379
 03  7 27  9 12  0.0000000  0 11 02 03 08 15 16 18 21 23 26 27 31
                 -11672218.705 3  -9095238.490 6  22417210.524
  22417207.807   -22874533.759 5 -17824307.124 8  20510672.972
  20510672.228    -8548891.788 3  -6661475.539 5  22576670.959
  22576670.378   -17991261.451 5 -14019153.665 7  21353292.271
  21353291.420    -3102730.915 1  -2417718.791 5  23974994.484
  23974992.099    -7847287.483 2  -6114768.232 5  22784382.942
  22784382.936    -4298947.355 1  -3349817.213 5  23936649.636
  23936650.562    -4906287.115 1  -3823076.636 5  23927539.363
  23927538.055    -2792671.952 1  -2176105.167 5  24392376.410
  24392375.385   -10678118.304 3  -8320613.994 6  21945204.549
  21945204.119   -17599554.393 5 -13713934.284 7  21339162.020    21339161.555
 03  7 27  9 12 30.0000000  0 11 02 03 08 15 16 18 21 23 26 27 31
                 -11561365.629 3  -9008859.372 6  22438304.999
  22438302.490   -22870475.799 5 -17821145.015 8  20511445.136
  20511444.357    -8581488.074 3  -6686875.237 5  22570467.806
  22570467.294   -17964279.981 5 -13998129.036 7  21358426.730
  21358425.651    -2987693.590 1  -2328079.064 5  23996884.922
  23996882.439    -7894030.404 2  -6151191.146 5  22775487.715
  22775488.061    -4197929.985 2  -3271102.411 5  23955871.869
  23955873.496    -5018260.931 1  -3910328.768 5  23906232.807
  23906230.534    -2855752.218 1  -2225258.701 5  24380373.993
  24380372.639   -10636614.555 3  -8288273.277 6  21953103.150
  21953101.944   -17658487.127 5 -13759855.696 7  21327947.287    21327946.787
 03  7 27  9 13  0.0000000  0 11 02 03 08 15 16 18 21 23 26 27 31
                 -11450184.105 3  -8922224.462 6  22459461.991
  22459459.479   -22865879.182 5 -17817563.249 8  20512319.882
  20512319.202    -8613500.534 3  -6711820.029 5  22564376.344
  22564375.610   -17936715.532 5 -13976650.122 7  21363671.994
  21363671.009    -2872492.520 1  -2238312.039 5  24018807.857
  24018805.182    -7940182.832 2  -6187154.042 5  22766705.192
  22766705.519    -4096645.494 2  -3192179.512 5  23975146.660
  23975147.564    -5129943.583 1  -3997354.339 5  23884980.069
  23884978.830    -2918358.602 1  -2274043.140 5  24368457.089
  24368458.208   -10594472.561 3  -8255435.522 6  21961121.836
  21961121.520   -17717017.168 5 -13805463.444 7  21316809.393    21316808.914
 03  7 27  9 13 30.0000000  0 11 02 03 08 15 16 18 21 23 26 27 31
                 -11338689.286 3  -8835345.515 6  22480679.042
  22480676.516   -22860756.341 5 -17813571.441 8  20513294.760
  20513293.971    -8644940.347 3  -6736318.535 5  22558393.406
  22558393.098   -17908581.940 5 -13954727.767 7  21369025.577
  21369024.736    -2757142.205 1  -2148428.818 5  24040757.127
  24040754.592    -7985755.802 2  -6222665.561 5  22758033.033
  22758033.630    -3995108.869 1  -3113060.128 5  23994467.972
  23994469.496    -5241343.466 1  -4084159.531 5  23863781.192
  23863780.167    -2980500.905 1  -2322465.737 5  24356631.166
  24356634.002   -10551705.976 3  -8222110.931 6  21969260.814
  21969259.888   -17775155.859 5 -13850766.338 7  21305745.920    21305745.505
 03  7 27  9 14  0.0000000  0 11 02 03 08 15 16 18 21 23 26 27 31
                 -11226891.233 3  -8748230.197 6  22501953.581
  22501950.918   -22855115.244 5 -17809175.816 8  20514368.235
  20514367.452    -8675814.303 3  -6760376.149 5  22552518.319
  22552517.865   -17879887.845 5 -13932368.670 7  21374485.817
  21374484.776    -2641651.305 1  -2058435.695 5  24062734.696
  24062732.788    -8030754.763 2  -6257729.825 5  22749470.220
  22749470.573    -3893331.205 1  -3033753.320 5  24013836.161
  24013837.697    -5352464.442 1  -4170747.149 5  23842635.776
  23842634.482    -3042184.928 1  -2370531.318 5  24344893.568
  24344894.528   -10508324.310 3  -8188307.048 6  21977515.367
  21977514.962   -17832909.266 5 -13895769.005 7  21294755.842    21294755.484
 03  7 27  9 14 30.0000000  0 11 02 03 08 15 16 18 21 23 26 27 31
                 -11114799.903 3  -8660886.487 6  22523283.983
  22523281.467   -22848962.765 5 -17804381.697 8  20515539.008
  20515538.192    -8706128.128 3  -6783997.307 5  22546749.907
  22546749.396   -17850641.688 5 -13909579.582 7  21380051.204
  21380050.126    -2526030.383 1  -1968341.758 5  24084736.107
  24084735.818    -8075184.384 2  -6292350.302 5  22741015.528
  22741015.855    -3791318.466 1  -2954262.099 5  24033248.165
  24033249.291    -5463310.430 1  -4257120.577 5  23821541.921
  23821540.389    -3103415.351 1  -2418243.578 5  24333244.979
  24333243.519   -10464336.658 3  -8154031.077 6  21985886.762
  21985885.657   -17890283.010 5 -13940475.887 7  21283838.119    21283837.564
 03  7 27  9 15  0.0000000  0 11 02 03 08 15 16 18 21 23 26 27 31
                 -11002414.540 3  -8573313.608 5  22544670.368
  22544667.753   -22842295.819 5 -17799186.768 8  20516807.767
  20516806.993    -8735877.265 3  -6807178.439 5  22541088.634
  22541088.228   -17820841.078 5 -13886358.425 7  21385722.158
  21385721.118    -2410277.436 1  -1878144.927 5  24106763.446
  24106762.970    -8119040.379 2  -6326523.987 5  22732670.419
  22732670.293    -3689073.752 1  -2874590.911 5  24052703.954
  24052705.946    -5573874.764 1  -4343274.544 5  23800502.958
  23800499.805    -3164186.276 1  -2465597.596 5  24321678.853
  24321678.198   -10419740.486 3  -8119280.851 6  21994372.372
  21994372.251   -17947273.083 5 -13984884.061 7  21272993.559    21272993.085
 03  7 27  9 15 30.0000000  0 11 02 03 08 15 16 18 21 23 26 27 31
                 -10889716.810 3  -8485497.103 6  22566116.143
  22566112.985   -22835093.607 5 -17793574.604 8  20518178.195
  20518177.457    -8765040.308 3  -6829902.940 5  22535539.132
  22535538.364   -17790466.767 5 -13862690.289 7  21391502.305
  21391501.444    -2294372.803 1  -1787829.433 5  24128819.965
  24128816.838    -8162299.918 2  -6360232.710 5  22724438.350
  22724438.256    -3586577.595 1  -2794723.896 5  24072208.804
  24072210.621    -5684133.202 1  -4429190.204 5  23779520.764
  23779518.447    -3224474.764 1  -2512575.564 5  24310207.874
  24310206.420   -10374517.818 3  -8084042.373 6  22002978.873
  22002977.501   -18003856.103 5 -14028974.645 7  21262226.013    21262225.679
 03  7 27  9 16  0.0000000  0 11 02 03 08 15 16 18 21 23 26 27 31
                 -10776724.696 2  -8397451.231 6  22587617.684
  22587615.186   -22827371.588 5 -17787557.397 8  20519647.637
  20519646.848    -8793630.732 3  -6852181.124 6  22530098.703
  22530097.974   -17759534.866 5 -13838587.634 7  21397388.724
  21397387.758    -2178335.272 1  -1697410.631 5  24150901.034
  24150898.863    -8204976.682 2  -6393487.541 5  22716317.047
  22716317.539    -3483847.364 1  -2714674.481 5  24091757.955
  24091758.780    -5794097.070 1  -4514876.307 5  23758595.109
  23758593.918    -3284294.389 1  -2559188.455 5  24298823.938
  24298824.032   -10328685.501 3  -8048328.935 6  22011699.510
  22011699.210   -18060046.040 5 -14072758.671 7  21251533.197    21251532.785
 03  7 27  9 16 30.0000000  0 11 02 03 08 15 16 18 21 23 26 27 31
                 -10663438.174 2  -8309176.105 5  22609175.269
  22609172.451   -22819126.809 5 -17781132.888 8  20521216.625
  20521215.825    -8821644.918 3  -6874010.362 6  22524767.678
  22524767.091   -17728043.315 5 -13814048.727 7  21403381.291
  21403380.414    -2062163.860 1  -1606887.746 5  24173008.531
  24173005.348    -8247064.828 2  -6426283.377 5  22708308.011
  22708308.347    -3380882.874 1  -2634442.649 4  24111352.092
  24111353.597    -5903759.644 1  -4600327.619 5  23737727.499
  23737725.248    -3343639.117 1  -2605431.109 5  24287530.819
  24287530.446   -10282241.605 3  -8012138.890 6  22020538.373
  22020536.846   -18115839.811 5 -14116234.335 7  21240916.007    21240915.439
 03  7 27  9 17  0.0000000  0 11 02 03 08 15 16 18 21 23 26 27 31
                 -10549853.659 2  -8220668.665 5  22630789.599
  22630786.960   -22810353.748 5 -17774296.803 8  20522886.071
  20522885.426    -8849075.709 3  -6895384.996 6  22519547.643
  22519547.394   -17695987.862 5 -13789070.436 7  21409481.305
  21409480.169    -1945853.303 1  -1516256.112 5  24195140.547
  24195139.429    -8288557.739 2  -6458615.545 5  22700412.329
  22700412.431    -3277679.655 1  -2554024.412 3  24130990.314
  24130991.563    -6013111.559 2  -4685536.757 5  23716918.084
  23716917.037    -3402501.082 1  -2651297.452 5  24276328.961
  24276329.550   -10235182.688 3  -7975469.608 6  22029492.484
  22029492.241   -18171229.421 5 -14159394.986 7  21230375.633    21230375.011
 03  7 27  9 17 30.0000000  0 10 02 03 08 15 16 18 23 26 27 31
                 -10435967.140 2  -8131926.036 5  22652461.846
  22652459.385   -22801044.803 5 -17767042.986 8  20524657.414
  20524656.715    -8875914.833 3  -6916298.602 6  22514440.322
  22514439.818   -17663362.612 5 -13763648.310 7  21415689.900
  21415688.690    -1829399.195 1  -1425512.724 5  24217300.388
  24217298.339    -8329446.666 2  -6490477.258 5  22692631.530
  22692631.608    -6122142.216 1  -4770495.594 5  23696169.611
  23696168.501    -3460871.069 1  -2696780.473 5  24265222.571
  24265221.608   -10187503.307 3  -7938316.910 6  22038566.496
  22038565.471   -18226206.564 5 -14202234.311 7  21219913.843    21219913.363
 03  7 27  9 18  0.0000000  0 10 02 03 08 15 16 18 23 26 27 31
                 -10321806.638 3  -8042970.013 5  22674185.879
  22674183.638   -22791226.202 5 -17759392.194 8  20526525.854
  20526525.197    -8902187.118 3  -6936770.604 5  22509441.149
  22509440.130   -17630193.952 5 -13737802.668 7  21422001.579
  21422000.437    -1712829.773 1  -1334679.683 5  24239484.505
  24239483.127    -8369754.994 3  -6521886.447 5  22684961.194
  22684961.421    -6230873.893 2  -4855221.619 5  23675479.150
  23675477.930    -3518772.766 1  -2741898.802 5  24254203.491
  24254203.134   -10139230.939 3  -7900702.175 6  22047751.671
  22047751.333   -18280795.498 5 -14244771.192 7  21209525.873    21209525.473
 03  7 27  9 18 30.0000000  0 11 02 03 08 15 16 18 23 26 27 29 31
                 -10207367.084 3  -7953796.365 5  22695963.223
  22695960.787   -22780890.610 5 -17751338.543 8  20528492.727
  20528492.088    -8927883.804 3  -6956793.958 5  22504550.939
  22504550.615   -17596475.797 5 -13711528.686 7  21428417.797
  21428416.886    -1596138.470 1  -1243751.512 5  24261690.000
  24261689.910    -8409473.090 2  -6552835.441 5  22677402.921
  22677403.231    -6339295.592 1  -4939706.175 5  23654847.665
  23654845.760    -3576196.005 1  -2786644.034 5  24243276.222
  24243276.063   -10090359.698 3  -7862620.605 6  22057052.103
  22057051.046           -.81811         -.55015  23459574.299
  23459574.813   -18334987.301 5 -14286998.535 7  21199213.517    21199213.071
 03  7 27  9 19  0.0000000  0 11 02 03 08 15 16 18 23 26 27 29 31
                 -10092653.445 3  -7864409.245 5  22717792.573
  22717789.990   -22770040.245 5 -17742883.832 8  20530557.612
  20530556.937    -8953006.097 3  -6976369.818 5  22499770.434
  22499770.057   -17562211.773 5 -13684829.501 7  21434938.153
  21434937.186    -1479329.879 1  -1152731.945 5  24283918.373
  24283916.871    -8448602.152 2  -6583325.566 5  22669956.658
  22669957.159    -6447405.266 1  -5023947.571 5  23634275.227
  23634272.765    -3633140.833 2  -2831016.583 5  24232439.636
  24232440.434   -10040893.262 3  -7824075.213 6  22066464.402
  22066464.167       -4929.837 1     -3841.474 5  23458636.961
  23458636.915   -18388782.891 5 -14328917.267 7  21188976.678    21188976.123
 03  7 27  9 19 30.0000000  0 11 02 03 08 15 16 18 23 26 27 29 31
                  -9977666.767 3  -7774809.431 5  22739674.022
  22739671.437   -22758673.995 5 -17734027.246 8  20532720.810
  20532719.990    -8977551.200 3  -6995495.905 6  22495099.636
  22495099.450   -17527401.679 5 -13657704.872 7  21441562.440
  21441561.227    -1362404.662 1  -1061621.649 5  24306169.086
  24306167.523    -8487139.290 3  -6613354.631 5  22662623.629
  22662623.804    -6555197.675 2  -5107941.670 5  23613762.374
  23613760.490    -3689604.385 2  -2875014.532 5  24221695.943
  24221695.842    -9990832.815 3  -7785067.324 6  22075991.795
  22075990.724       -9195.069 1     -7165.295 5  23457824.317
  23457824.711   -18442179.199 5 -14370524.857 7  21178815.795    21178815.307
 03  7 27  9 20  0.0000000  0 11 02 03 08 15 16 18 23 26 27 29 31
                  -9862395.013 3  -7684987.188 5  22761609.214
  22761606.684   -22746777.805 5 -17724757.790 8  20534984.947
  20534983.958    -9001504.418 3  -7014160.777 6  22490541.595
  22490541.031   -17492032.089 5 -13630144.111 7  21448292.975
  21448291.931    -1245349.890 1   -970410.112 5  24328443.450
  24328439.928    -8525067.874 2  -6642909.207 5  22655406.104
  22655406.152    -6662655.572 2  -5191675.133 5  23593314.143
  23593312.004    -3745569.645 1  -2918624.184 5  24211046.649
  24211045.898    -9940165.579 3  -7745586.251 6  22085632.353
  22085632.153      -12781.636 2     -9960.223 5  23457143.095
  23457142.413   -18495160.907 5 -14411809.400 7  21168733.795    21168733.283
 03  7 27  9 20 30.0000000  0 11 02 03 08 15 16 18 23 26 27 29 31
                  -9746839.857 3  -7594944.421 5  22783599.000
  22783596.237   -22734348.694 5 -17715072.682 8  20537349.989
  20537349.041    -9024862.488 3  -7032361.928 6  22486096.833
  22486096.139   -17456102.634 5 -13602147.059 7  21455130.018
  21455128.786    -1128165.960 1   -879097.977 5  24350742.898
  24350739.900    -8562384.940 2  -6671987.390 5  22648304.724
  22648304.882    -6769773.220 2  -5275143.489 5  23572930.113
  23572928.071    -3801031.572 1  -2961841.239 5  24200491.686
  24200492.288    -9888891.685 3  -7705632.683 6  22095390.634
  22095389.086      -15687.315 2    -12224.547 5  23456588.832
  23456589.774   -18547724.730 5 -14452768.384 7  21158731.480    21158730.714
 03  7 27  9 21  0.0000000  0 11 02 03 08 15 16 18 23 26 27 29 31
                  -9631022.231 2  -7504697.095 5  22805638.646
  22805635.929   -22721407.155 5 -17704988.352 8  20539812.606
  20539811.703    -9047643.701 3  -7050113.547 6  22481761.808
  22481760.825   -17419633.521 5 -13573729.419 7  21462069.715
  21462068.632    -1010874.099 1   -787701.834 5  24373062.268
  24373060.693    -8599108.005 2  -6700602.825 5  22641316.707
  22641316.805    -6876566.128 1  -5358358.780 5  23552608.564
  23552606.302    -3856008.288 1  -3004680.265 5  24190030.472
  24190030.195    -9837031.924 3  -7665222.473 6  22105258.168
  22105257.802      -17930.402 1    -13972.250 5  23456163.108
  23456163.102   -18599887.990 5 -14493415.046 7  21148805.025    21148804.481
 03  7 27  9 21 30.0000000  0 11 02 03 08 15 16 18 23 26 27 29 31
                  -9514939.808 2  -7414243.188 5  22827728.136
  22827725.520   -22707948.047 5 -17694500.547 8  20542373.567
  20542372.850    -9069841.989 3  -7067410.769 6  22477537.343
  22477536.759   -17382621.790 5 -13544888.989 7  21469112.730
  21469111.574     -893470.891 1   -696218.637 5  24395403.271
  24395402.221    -8635229.889 2  -6728749.553 5  22634442.819
  22634442.646    -6983025.768 2  -5441314.270 5  23532349.928
  23532349.069    -3910492.612 1  -3047135.636 5  24179662.349
  24179662.391    -9784583.628 3  -7624353.453 6  22115239.476
  22115238.246      -19506.700 2    -15200.347 5  23455862.185
  23455862.745   -18651644.454 5 -14533744.486 7  21138955.799    21138955.279
 03  7 27  9 22  0.0000000  0 11 02 03 08 15 16 18 23 26 27 29 31
                  -9398592.295 2  -7323582.892 5  22849868.591
  22849865.805   -22693968.630 5 -17683607.383 8  20545033.700
  20545033.002    -9091453.395 3  -7084250.698 6  22473424.888
  22473424.153   -17345065.053 5 -13515623.933 7  21476259.578
  21476258.577     -775955.673 1   -604648.342 5  24417766.272
  24417763.503    -8670746.482 2  -6756424.816 5  22627684.057
  22627684.320    -7089145.219 2  -5524004.694 5  23512155.410
  23512153.930    -3964478.591 1  -3089202.585 5  24169391.256
  24169389.435    -9731545.017 2  -7583024.628 6  22125331.500
  22125331.066      -20412.918 1    -15906.519 5  23455690.988
  23455690.332   -18702989.951 5 -14573753.786 7  21129184.890    21129184.484
 03  7 27  9 22 30.0000000  0 11 02 03 08 15 16 18 23 26 27 29 31
                  -9281978.568 2  -7232715.116 5  22872059.633
  22872056.489   -22679465.810 5 -17672306.533 8  20547793.540
  20547792.752    -9112473.493 3  -7100629.868 6  22469424.864
  22469423.576   -17306961.162 5 -13485932.549 7  21483510.376
  21483509.391     -658326.611 1   -512989.279 5  24440150.517
  24440148.710    -8705652.549 2  -6783624.304 5  22621041.392
  22621041.458    -7194917.186 2  -5606424.235 5  23492028.037
  23492026.284    -4017961.560 1  -3130877.769 5  24159217.676
  24159210.150    -9677915.251 2  -7541235.162 6  22135537.762
  22135536.544      -20644.703 1    -16086.955 5  23455646.114
  23455646.623   -18753920.168 5 -14613439.777 7  21119493.278    21119492.864
 03  7 27  9 23  0.0000000  0 11 02 03 08 15 16 18 23 26 27 29 31
                  -9165112.489 2  -7141650.767 5  22894298.553
  22894295.512   -22664450.174 5 -17660605.974 8  20550650.928
  20550650.068    -9132912.877 3  -7116556.654 6  22465535.416
  22465534.595   -17268322.925 5 -13455825.008 7  21490863.096
  21490861.952     -540596.817 1   -421251.803 5  24462554.758
  24462550.978    -8739958.235 2  -6810356.192 5  22614513.598
  22614513.743    -7300349.491 1  -5688579.148 5  23471964.598
  23471963.135    -4070949.192 1  -3172167.075 5  24149128.662
  24149127.576    -9623707.242 3  -7498995.159 6  22145852.361
  22145852.022      -20213.606 2    -15750.900 5  23455728.666
  23455727.470   -18804444.549 5 -14652809.619 7  21109879.017    21109878.613
 03  7 27  9 23 30.0000000  0 11 02 03 08 15 16 18 23 26 27 29 31
                  -9047993.210 2  -7050389.108 5  22916585.424
  22916582.727   -22648919.220 5 -17648503.933 8  20553606.380
  20553605.533    -9152767.127 3  -7132027.468 6  22461757.065
  22461756.568   -17229147.981 5 -13425299.185 7  21498318.003
  21498316.784     -422765.513 1   -329435.515 5  24484977.325
  24484974.645    -8773657.924 2  -6836615.770 5  22608100.677
  22608101.004    -7405434.990 2  -5770463.710 5  23451967.612
  23451966.192    -4123436.971 1  -3213066.871 5  24139140.182
  24139139.606    -9568919.947 3  -7456303.970 6  22156279.230
  22156277.923      -19116.232 1    -14895.762 5  23455935.964
  23455936.378   -18854557.844 5 -14691858.922 7  21100342.707    21100342.334
 03  7 27  9 24  0.0000000  0 11 02 03 08 15 16 18 23 26 27 29 31
                  -8930613.855 2  -6958924.748 5  22938922.272
  22938918.980   -22632863.847 5 -17635993.328 8  20556661.782
  20556660.814    -9172026.165 3  -7147034.724 6  22458092.364
  22458091.880   -17189428.111 5 -13394348.762 6  21505876.655
  21505875.347     -304824.542 1   -237533.802 5  24507421.087
  24507418.021    -8806740.745 3  -6862394.682 5  22601805.586
  22601805.471    -7510160.911 2  -5852068.180 5  23432039.096
  23432036.288    -4175413.945 1  -3253568.642 5  24129249.793
  24129249.222    -9513544.959 3  -7413154.743 6  22166816.293
  22166815.764      -17342.963 1    -13514.040 5  23456275.426
  23456273.977   -18904249.540 5 -14730579.707 7  21090886.808    21090886.299
 03  7 27  9 24 30.0000000  0 11 02 03 08 15 16 18 23 26 27 29 31
                  -8812979.744 2  -6867261.835 5  22961306.928
  22961304.419   -22616286.604 5 -17623076.041 8  20559816.324
  20559815.343    -9190691.238 3  -7161579.037 6  22454540.565
  22454540.151   -17149168.201 5 -13362977.815 6  21513538.160
  21513536.966     -186778.048 1   -145549.649 5  24529884.175
  24529881.250    -8839208.391 3  -6887694.378 5  22595627.227
  22595627.456    -7614526.118 2  -5933391.592 5  23412178.348
  23412176.730    -4226879.161 1  -3293671.125 5  24119455.705
  24119455.194    -9457587.500 3  -7369551.529 6  22177465.087
  22177464.011      -14896.345 1    -11607.675 5  23456738.549
  23456740.203   -18953521.456 5 -14768973.545 7  21081510.806    21081510.251
 03  7 27  9 25  0.0000000  0 11 02 03 08 15 16 18 23 26 27 29 31
                  -8695105.230 2  -6775411.576 5  22983737.896
  22983734.787   -22599199.668 5 -17609761.611 8  20563067.918
  20563066.932    -9208773.456 3  -7175669.075 6  22451099.732
  22451098.945   -17108380.513 5 -13331195.407 6  21521300.052
  21521298.759      -68639.898 1    -53493.967 5  24552364.949
  24552363.050    -8871071.547 3  -6912523.407 5  22589564.526
  22589564.752    -7718539.191 2  -6014440.705 5  23392386.122
  23392384.044    -4277843.910 1  -3333383.976 5  24109757.854
  24109757.215    -9401061.318 3  -7325505.084 6  22188221.046
  22188220.308      -11787.751 1     -9185.304 5  23457332.116
  23457331.043   -19002383.439 5 -14807047.798 7  21072212.558    21072212.008
 03  7 27  9 25 30.0000000  0 11 02 03 08 15 16 18 23 26 27 29 31
                  -8576982.666 2  -6683368.046 5  23006215.952
  23006212.951   -22581592.892 5 -17596042.063 8  20566418.409
  20566417.416    -9226261.755 3  -7189296.225 6  22447771.709
  22447771.149   -17067056.475 5 -13298994.963 6  21529163.739
  21529162.579       49597.500 1     38638.929 5  24574865.045
  24574861.177    -8902316.447 3  -6936870.030 5  22583618.680
  22583618.641    -7822185.910 2  -6095204.385 5  23372661.849
  23372660.876    -4328295.165 1  -3372696.586 5  24100157.647
  24100157.070    -9343958.537 3  -7281009.330 6  22199087.915
  22199086.479       -8007.564 2     -6239.637 5  23458049.574
  23458050.754   -19050824.067 5 -14844793.617 7  21062994.459    21062993.995
 03  7 27  9 26  0.0000000  0 11 02 03 08 15 16 18 23 26 27 29 31
                  -8458610.218 2  -6591129.828 5  23028741.034
  23028738.184   -22563462.651 5 -17581914.705 8  20569868.485
  20569867.615    -9243151.585 3  -7202457.171 6  22444557.549
  22444557.142   -17025193.101 5 -13266374.284 6  21537130.218
  21537129.082      167937.068 1    130851.505 5  24597384.696
  24597383.217    -8932938.828 3  -6960731.509 5  22577791.288
  22577791.601    -7925458.325 2  -6175676.422 5  23353010.264
  23353008.841    -4378227.227 1  -3411604.963 5  24090655.216
  24090654.436    -9286277.295 3  -7236062.967 6  22210063.624
  22210063.206       -3551.307 2     -2767.222 5  23458899.310
  23458898.777   -19098838.199 5 -14882207.251 7  21053857.772    21053857.290
 03  7 27  9 26 30.0000000  0 11 02 03 08 15 16 18 23 26 27 29 31
                  -8340024.093 2  -6498725.065 5  23051308.222
  23051305.143   -22544842.620 5 -17567405.596 8  20573411.812
  20573410.944    -9259475.578 3  -7215177.197 6  22441451.269
  22441450.606   -16982825.316 5 -13233360.259 6  21545192.514
  21545191.215      286343.239 1    223115.957 5  24619916.779
  24619912.127    -8962970.969 3  -6984133.002 5  22572076.402
  22572076.256    -8028386.269 2  -6255879.868 5  23333423.470
  23333421.373    -4427670.840 2  -3450132.514 5  24081246.613
  24081247.250    -9228052.201 2  -7190692.834 6  22221144.360
  22221143.057        1547.141 2      1205.590 5  23459868.203
  23459868.957   -19146458.295 5 -14919313.971 7  21044796.172    21044795.581
 03  7 27  9 27  0.0000000  0 11 02 03 08 15 16 18 23 26 27 29 31
                  -8221195.678 2  -6406131.724 5  23073920.113
  23073917.193   -22525701.728 5 -17552490.669 8  20577054.203
  20577053.271    -9275201.399 3  -7227431.112 6  22438458.896
  22438458.050   -16939923.443 5 -13199930.115 6  21553356.371
  21553355.003      404845.790 1    315455.571 5  24642466.640
  24642461.006    -8992380.260 3  -7007049.246 5  22566479.915
  22566479.957    -8130935.083 2  -6335787.970 5  23313908.962
  23313907.021    -4476592.494 2  -3488253.177 5  24071936.484
  24071936.676    -9169254.844 2  -7144876.771 6  22232332.147
  22232332.081        7319.253 2      5703.236 5  23460967.637
  23460966.986   -19193651.025 5 -14956087.624 7  21035815.695    21035815.267
 03  7 27  9 27 30.0000000  0 11 02 03 08 15 16 18 23 26 27 29 31
                  -8102119.492 2  -6313345.286 5  23096580.016
  23096576.819   -22506032.492 5 -17537164.012 8  20580797.157
  20580796.224    -9290320.510 3  -7239212.277 6  22435581.739
  22435581.117   -16896481.436 5 -13166079.251 6  21561623.112
  21561621.779      523449.855 1    407874.138 5  24665036.251
  24665035.448    -9021157.752 3  -7029473.376 5  22561003.775
  22561003.774    -8233093.990 2  -6415392.591 5  23294468.412
  23294467.817    -4524982.914 2  -3525959.940 5  24062729.377
  24062728.771    -9109879.229 2  -7098610.091 5  22243631.999
  22243630.625       13772.513 1     10731.509 5  23462195.531
  23462196.396   -19240407.342 5 -14992521.115 7  21026918.331    21026917.620
 03  7 27  9 28  0.0000000  0 11 02 03 08 15 16 18 23 26 27 29 31
                  -7982799.014 2  -6220368.467 5  23119285.323
  23119282.826   -22485836.176 5 -17521426.626 8  20584640.401
  20584639.438    -9304833.271 3  -7250520.937 6  22432820.201
  22432819.454   -16852501.491 5 -13131809.315 6  21569992.351
  21569990.813      642153.317      500370.287 5  24687625.298
  24687619.253    -9049302.706 3  -7051404.600 5  22555647.950
  22555647.893    -8334858.568 2  -6494689.473 5  23275104.027
  23275101.850    -4572840.613 1  -3563251.488 5  24053622.253
  24053620.548    -9049928.648 2  -7051895.458 5  22255039.246
  22255039.039       20906.741 1     16290.709 5  23463553.727
  23463552.676   -19286726.931 5 -15028614.250 7  21018103.929    21018103.432
 03  7 27  9 28 30.0000000  0 11 02 03 08 15 16 18 23 26 27 29 31
                  -7863239.728 2  -6127205.413 5  23142037.596
  23142034.133   -22465116.291 5 -17505281.304 8  20588583.334
  20588582.340    -9318742.193 3  -7261359.092 6  22430173.448
  22430172.728   -16807987.512 5 -13097122.986 6  21578462.944
  21578461.701      760950.869 1    592939.834 4  24710230.792
  24710229.315    -9076815.994 3  -7072843.202 5  22550411.981
  22550412.167    -8436229.581 2  -6573679.897 5  23255812.999
  23255812.342    -4620168.232 1  -3600130.487 5  24044616.198
  24044615.886    -8989407.938 2  -7004736.532 5  22266556.967
  22266555.718       28718.295 1     22377.813 5  23465038.216
  23465038.604   -19332611.825 5 -15064368.700 7  21009372.331    21009371.767
 03  7 27  9 29  0.0000000  0 11 02 03 08 15 16 18 23 26 27 29 31
                  -7743469.656 2  -6033878.030 5  23164828.843
  23164825.557   -22443898.825 5 -17488748.288 8  20592621.007
  20592619.962    -9332072.058 3  -7271745.994 6  22427636.891
  22427636.365   -16762966.765 5 -13062041.636 6  21587029.915
  21587028.605      879816.046 1    685562.357 3  24732850.976
  24732846.400    -9103722.555 3  -7093808.938 5  22545291.455
  22545291.981    -8537228.771 2  -6652380.659 5  23236593.885
  23236591.908    -4666987.935 1  -3636613.530 5  24035705.988
  24035705.996    -8928345.307 2  -6957155.332 6  22278176.106
  22278175.678       37181.029 1     28972.216 5  23466650.089
  23466649.686   -19378086.047 5 -15099803.072 7  21000718.753    21000718.216
 03  7 27  9 29 30.0000000  0  9 02 03 08 15 16 18 23 27 31
                  -7623491.082 2  -5940388.203 5  23187660.434
  23187656.930   -22422183.448 5 -17471827.257 8  20596753.363
  20596752.351    -9344821.926 3  -7281680.968 6  22425210.509
  22425209.978   -16717441.447 5 -13026567.536 6  21595693.241
  21595691.977      998746.257 1    778235.517 3  24755481.826
  24755477.325    -9130022.174 3  -7114302.287 5  22540286.945
  22540286.791    -8637852.218 2  -6730788.756 5  23217446.264
  23217445.005    -8866742.206 2  -6909153.025 6  22289899.632
  22289898.417   -19423148.034 5 -15134916.168 7  20992143.619    20992143.174
 03  7 27  9 30  0.0000000  0  8 02 03 08 15 18 23 27 31
                  -7503298.759 2  -5846731.747 5  23210531.779
  23210528.802   -22399962.959 5 -17454512.650 8  20600981.855
  20600980.762    -9356983.127 3  -7291157.222 6  22422896.352
  22422895.890   -16671404.422 5 -12990694.655 6  21604454.030
  21604452.620    -9155704.777 3  -7134314.930 5  22535400.125
  22535400.292    -8738087.497 2  -6808893.902 5  23198371.824
  23198369.916    -8804593.134 2  -6860725.191 5  22301725.348
  22301725.166   -19467789.385 5 -15169701.780 8  20983648.841    20983648.219
 03  7 27  9 30 30.0000000  0  9 02 03 08 15 18 23 26 27 31
                  -7382881.811 2  -5752900.439 5  23233446.641
  23233443.778   -22377224.162 5 -17436794.300 8  20605309.108
  20605307.973    -9368541.434 3  -7300163.681 6  22420696.916
  22420696.256   -16624843.353 5 -12954413.393 6  21613314.426
  21613312.955    -9180755.127 3  -7153834.868 5  22530633.637
  22530633.416    -8837918.335 2  -6886684.074 5  23179374.356
  23179372.913           -.46611         -.21615  24009568.538
  24009568.896    -8741886.563 2  -6811862.970 5  22313659.134
  22313657.478   -19511994.400 5 -15204147.374 7  20975237.012    20975236.436
 03  7 27  9 31  0.0000000  0  9 02 03 08 15 18 23 26 27 31
                  -7262244.337 2  -5658897.273 5  23256403.199
  23256400.185   -22353968.933 5 -17418673.385 8  20609734.427
  20609733.322    -9379498.447 3  -7308701.597 6  22418611.963
  22418611.334   -16577761.473 5 -12917726.047 6  21622273.533
  21622272.357    -9205173.479 3  -7172861.901 5  22525986.207
  22525986.335    -8937342.701 2  -6964157.396 5  23160454.764
  23160452.231      -44720.277 1    -34847.061 5  24001058.186
  24001057.374    -8678626.571 2  -6762569.450 5  22325695.912
  22325695.483   -19555763.856 5 -15238253.451 8  20966907.846    20966907.430
 03  7 27  9 31 30.0000000  0  9 02 03 08 15 18 23 26 27 31
                  -7141384.736 2  -5564720.884 5  23279401.740
  23279399.094   -22330193.899 5 -17400147.385 8  20614258.640
  20614257.503    -9389849.497 3  -7316767.303 6  22416642.089
  22416641.140   -16530157.320 5 -12880631.961 6  21631332.329
  21631331.161    -9228955.687 3  -7191393.238 5  22521460.385
  22521460.713    -9036353.515 2  -7041308.587 5  23141613.267
  23141611.708      -88898.422 1    -69271.378 5  23992651.463
  23992651.615    -8614811.540 2  -6712843.443 6  22337840.691
  22337839.469   -19599092.582 5 -15272016.093 8  20958662.781    20958662.160
 03  7 27  9 32  0.0000000  0  9 02 03 08 15 18 23 26 27 31
                  -7020318.923 2  -5470383.929 5  23302439.712
  23302436.870   -22305912.594 5 -17381226.962 8  20618879.342
  20618878.255    -9399607.178 3  -7324370.706 6  22414785.300
  22414784.477   -16482044.784 4 -12843141.705 6  21640487.947
  21640486.521    -9252114.235 3  -7209439.089 5  22517053.893
  22517054.062    -9134959.735 2  -7118144.508 5  23122849.229
  23122847.820     -132546.313 1   -103282.401 5  23984345.894
  23984345.527    -8550457.155 2  -6662697.201 6  22350086.200
  22350085.482   -19641992.540 5 -15305444.758 8  20950499.309    20950498.718
 03  7 27  9 32 30.0000000  0  9 02 03 08 15 18 23 26 27 31
                  -6899032.228 2  -5375874.791 5  23325519.849
  23325517.061   -22281108.337 5 -17361898.980 8  20623599.375
  20623598.282    -9408753.864 3  -7331498.011 6  22413044.751
  22413043.793   -16433408.260 5 -12805243.030 6  21649743.031
  21649741.803    -9274629.653 3  -7226983.577 5  22512769.280
  22512769.377    -9233141.275 2  -7194649.638 5  23104166.048
  23104164.324     -175646.564 1   -136867.176 5  23976144.145
  23976145.058    -8485547.965 2  -6612118.596 6  22362438.573
  22362437.172   -19684445.377 5 -15338524.973 8  20942420.865    20942420.256
 03  7 27  9 33  0.0000000  0  9 02 03 08 15 18 23 26 27 31
                  -6777556.919 2  -5281218.790 5  23348636.295
  23348632.903   -22255811.230 5 -17342186.956 8  20628413.323
  20628412.166    -9417318.654 3  -7338171.829 6  22411414.701
  22411414.274   -16384279.851 5 -12766961.330 6  21659091.983
  21659090.743    -9296530.238 3  -7244048.612 5  22508601.586
  22508601.556    -9330923.674 2  -7270843.622 5  23085558.355
  23085556.544     -218226.012 1   -170046.128 5  23968042.002
  23968042.225    -8420116.679 2  -6561133.250 5  22374889.074
  22374888.416   -19726479.220 5 -15371278.574 8  20934422.018    20934421.432
 03  7 27  9 33 30.0000000  0  9 02 03 08 15 18 23 26 27 31
                  -6655878.057 2  -5186404.189 5  23371791.150
  23371788.498   -22230004.709 5 -17322078.031 8  20633324.204
  20633322.927    -9425284.192 3  -7344378.847 6  22409899.101
  22409898.311   -16334642.682 5 -12728282.941 6  21668537.612
  21668536.414    -9317799.142 3  -7260621.895 5  22504554.123
  22504554.275    -9428286.550 2  -7346710.922 5  23067030.982
  23067028.448     -260265.679 1   -202804.485 5  23960042.551
  23960042.013    -8354147.815 2  -6509729.015 5  22387443.615
  22387441.980   -19768076.015 5 -15403691.730 8  20926506.405    20926505.900
 03  7 27  9 34  0.0000000  0  9 02 03 08 15 18 23 26 27 31
                  -6533995.920 2  -5091431.164 5  23394984.461
  23394981.311   -22203687.232 5 -17301571.151 8  20638332.421
  20638331.341    -9432647.411 3  -7350116.462 6  22408497.943
  22408497.137   -16284496.697 5 -12689208.120 6  21678079.898
  21678078.672    -9338431.955 3  -7276699.224 5  22500627.633
  22500627.849    -9525223.833 2  -7422246.609 5  23048584.488
  23048582.776     -301760.724 1   -235138.120 5  23952145.885
  23952145.172    -8287641.588 2  -6457906.051 5  22400098.302
  22400097.489   -19809232.109 5 -15435761.446 8  20918674.728    20918674.058
 03  7 27  9 34 30.0000000  0  9 02 03 08 15 18 23 26 27 31
                  -6411901.093 2  -4996292.270 5  23418218.093
  23418215.007   -22176846.668 5 -17280656.451 8  20643439.972
  20643438.880    -9439396.215 3  -7355375.244 6  22407213.738
  22407213.028   -16233832.242 4 -12649729.489 6  21687721.273
  21687719.807    -9358417.072 3  -7292272.096 5  22496824.548
  22496825.151    -9621720.069 2  -7497438.535 5  23030222.013
  23030220.768     -342698.899 1   -267038.013 5  23944354.984
  23944354.584    -8220588.841 2  -6405657.182 5  22412859.007
  22412857.334   -19849934.580 5 -15467477.612 8  20910929.343    20910928.715
 03  7 27  9 35  0.0000000  0 10 02 03 08 11 15 18 23 26 27 31
                  -6289626.227 2  -4901013.140 5  23441485.390
  23441482.365   -22149514.098 5 -17259358.416 8  20648641.235
  20648640.171    -9445560.460 3  -7360178.582 6  22406040.666
  22406040.024           -.95211         -.95413  25141689.216
  25141686.335   -16182680.564 4 -12609871.152 6  21697455.383
  21697453.844    -9377783.460 3  -7307363.080 5  22493139.602
  22493139.936    -9717801.590 2  -7572307.151 5  23011938.244
  23011936.834     -383107.632 1   -298525.205 5  23936665.913
  23936666.057    -8153021.725 2  -6353007.444 5  22425715.415
  22425714.662   -19890212.465 5 -15498863.019 8  20903264.809    20903264.089
 03  7 27  9 35 30.0000000  0  9 02 03 08 15 18 23 26 27 31
                  -6167168.506 2  -4805591.535 5  23464789.780
  23464785.803   -22121684.846 5 -17237673.536 8  20653937.232
  20653936.092    -9451134.197 3  -7364521.745 6  22404980.070
  22404979.508   -16131038.460 4 -12569630.916 6  21707282.839
  21707281.306    -9396523.696 3  -7321965.942 5  22489573.555
  22489573.811    -9813459.544 2  -7646845.595 5  22993734.536
  22993733.445     -422980.221 2   -329594.621 5  23929078.580
  23929078.751    -8084937.128 2  -6299954.414 5  22438672.268
  22438671.170   -19930059.181 5 -15529912.516 8  20895682.318    20895681.636
 03  7 27  9 36  0.0000000  0  9 02 03 08 15 18 23 26 27 31
                  -6044525.170 2  -4710025.365 5  23488126.130
  23488124.051   -22093353.411 5 -17215597.020 8  20659328.513
  20659327.347    -9456111.746 3  -7368400.361 6  22404032.921
  22404032.383   -16078900.398 4 -12529003.617 6  21717204.137
  21717202.870    -9414631.881 3  -7336076.166 5  22486127.728
  22486127.890    -9908686.082 2  -7721048.278 5  22975614.038
  22975612.562     -462309.572 2   -360240.708 5  23921593.819
  23921594.332    -8016331.986 2  -6246495.871 5  22451726.592
  22451726.382   -19969468.161 5 -15560620.902 8  20888183.162    20888182.480
 03  7 27  9 36 30.0000000  0  9 02 03 08 15 18 23 26 27 31
                  -5921684.340 2  -4614305.232 5  23511503.198
  23511499.483   -22064506.994 5 -17193119.465 8  20664817.969
  20664816.745    -9460478.622 3  -7371803.156 6  22403202.065
  22403201.290   -16026256.053 4 -12487982.266 6  21727222.079
  21727220.865    -9432092.844 3  -7349682.051 5  22482805.006
  22482805.005   -10003462.745 2  -7794900.379 5  22957578.963
  22957576.721     -501080.534 2   -390451.969 5  23914216.546
  23914216.058    -7947195.639 2  -6192623.471 5  22464883.851
  22464882.562   -20008423.872 5 -15590976.030 8  20880770.092    20880769.343
 03  7 27  9 37  0.0000000  0  9 02 03 08 15 18 23 26 27 31
                  -5798650.310 2  -4518434.581 5  23534915.869
  23534912.962   -22035147.030 5 -17170241.600 8  20670405.080
  20670403.836    -9464236.172 3  -7374731.069 6  22402486.820
  22402486.242   -15973105.792 4 -12446565.724 6  21737335.726
  21737334.516    -9448907.772 3  -7362784.605 5  22479605.264
  22479605.327   -10097787.528 2  -7868400.344 5  22939629.278
  22939627.793     -539292.682 2   -420227.883 5  23906944.910
  23906945.262    -7877530.547 2  -6138338.994 5  22478139.705
  22478139.438   -20046926.745 5 -15620978.226 8  20873443.146    20873442.555
 03  7 27  9 37 30.0000000  0  9 02 03 08 15 18 23 26 27 31
                  -5675431.092 2  -4422419.630 5  23558363.757
  23558361.147   -22005279.519 5 -17146968.171 8  20676088.628
  20676087.373    -9467389.766 3  -7377188.475 6  22401886.851
  22401886.398   -15919459.474 4 -12404762.845 6  21747543.696
  21747542.439    -9465080.674 3  -7375386.563 5  22476527.227
  22476527.586   -10191661.898 2  -7941548.958 5  22921766.021
  22921763.960     -576948.989 1   -449570.358 5  23899779.268
  23899779.491    -7807345.962 2  -6083649.709 5  22491496.363
  22491494.980   -20084981.613 5 -15650631.421 8  20866201.715    20866200.900
 03  7 27  9 38  0.0000000  0 10 02 03 08 15 18 23 26 27 28 31
                  -5552030.553 2  -4326263.345 5  23581846.076
  23581843.306   -21974906.969 5 -17123301.231 8  20681868.303
  20681867.054    -9469940.326 3  -7379175.799 6  22401401.208
  22401400.617   -15865320.626 4 -12362576.652 6  21757845.903
  21757844.576    -9480613.009 3  -7387489.458 5  22473571.354
  22473571.524   -10285084.903 2  -8014346.002 5  22903987.373
  22903986.056     -614050.170 2   -478480.229 5  23892718.719
  23892718.582    -7736644.933 2  -6028557.883 5  22504949.445
  22504948.701            .26911          .03014  24781239.963
  24781240.690   -20122588.449 5 -15679935.386 8  20859045.385    20859044.644
 03  7 27  9 38 30.0000000  0 10 02 03 08 15 18 23 26 27 28 31
                  -5428464.205 2  -4229977.720 5  23605359.948
  23605357.080   -21944043.270 5 -17099251.599 8  20687741.529
  20687740.313    -9471901.282 3  -7380703.747 6  22401028.112
  22401027.213   -15810705.019 4 -12320019.783 6  21768239.580
  21768238.166    -9495517.260 3  -7399103.062 5  22470734.942
  22470735.531   -10378065.588 2  -8086798.216 5  22886294.090
  22886292.024     -650607.990 2   -506966.774 5  23885761.860
  23885761.944    -7665443.720 2  -5973076.252 5  22518499.318
  22518497.970     -114073.682      -88888.707 3  24759532.605
  24759534.468   -20159759.631 5 -15708899.884 8  20851971.842    20851971.169
 03  7 27  9 39  0.0000000  0 10 02 03 08 15 18 23 26 27 28 31
                  -5304733.726 2  -4133564.374 5  23628904.710
  23628901.420   -21912687.826 5 -17074818.894 8  20693708.303
  20693707.118    -9473271.288 3  -7381771.456 6  22400767.377
  22400766.716   -15755609.749 4 -12277088.418 6  21778723.870
  21778722.577    -9509792.375 3  -7410227.114 5  22468019.273
  22468019.584   -10470600.629 2  -8158903.814 5  22868685.660
  22868683.646     -686619.489 1   -535027.764 5  23878908.856
  23878908.820    -7593743.922 2  -5917206.388 5  22532142.425
  22532141.754     -228009.546 1   -177669.527 4  24737851.521
  24737850.852   -20196492.620 5 -15737522.952 8  20844981.736    20844981.003
 03  7 27  9 39 30.0000000  0 10 02 03 08 15 18 23 26 27 28 31
                  -5180837.619 2  -4037021.855 5  23652481.546
  23652478.920   -21880837.897 5 -17050000.949 8  20699769.300
  20699768.064    -9474046.086 3  -7382375.252 6  22400620.050
  22400619.462   -15700034.274 4 -12233782.807 6  21789299.561
  21789297.981    -9523431.504 3  -7420854.951 5  22465423.622
  22465423.903   -10562680.859 2  -8230654.469 5  22851162.675
  22851161.021     -722079.719 2   -562659.283 5  23872161.948
  23872161.656    -7521543.325 2  -5860946.154 5  22545882.526
  22545881.300     -341802.590 1   -266339.083 3  24716195.818
  24716197.019   -20232782.946 5 -15765801.140 8  20838075.810    20838075.124
 03  7 27  9 40  0.0000000  0  9 02 03 08 15 18 23 26 27 31
                  -5056774.004 2  -3940348.887 5  23676089.597
  23676086.580   -21848488.661 5 -17024793.705 8  20705925.187
  20705923.901    -9474221.169 3  -7382511.741 6  22400586.880
  22400586.128   -15643975.832 4 -12190100.758 6  21799966.916
  21799965.625    -9536431.013 3  -7430984.532 5  22462949.953
  22462950.454   -10654299.881 2  -8302046.033 5  22833728.416
  22833726.801     -756981.738 2   -589855.558 5  23865519.636
  23865519.345    -7448841.129 2  -5804295.187 5  22559716.831
  22559715.723   -20268624.648 5 -15793729.695 8  20831255.351    20831254.640
 03  7 27  9 40 30.0000000  0  9 02 03 08 15 18 23 26 27 31
                  -4932547.403 2  -3843549.163 5  23699730.150
  23699726.697   -21815643.223 5 -16999199.945 8  20712175.575
  20712174.160    -9473797.771 3  -7382181.774 6  22400667.507
  22400666.639   -15587438.698 4 -12146045.865 6  21810725.789
  21810724.110    -9548790.689 3  -7440615.082 5  22460597.651
  22460597.836   -10745454.906 2  -8373075.748 5  22816381.798
  22816380.563     -791326.088 2   -616617.148 5  23858984.255
  23858984.544    -7375640.566 2  -5747255.815 5  22573647.157
  22573645.097   -20304018.342 5 -15821309.067 8  20824520.012    20824519.404
 03  7 27  9 41  0.0000000  0 10 02 03 08 11 15 18 23 26 27 31
                  -4808145.232 2  -3746612.511 5  23723402.248
  23723398.989   -21782287.571 5 -16973208.569 8  20718522.922
  20718521.567    -9472761.891 3  -7381374.542 6  22400864.497
  22400863.919           -.05611         -.60115  24878555.978
  24878553.892   -15530410.317 4 -12101608.360 6  21821578.026
  21821576.307    -9560497.834 3
  22458370.248   -10836128.445 2  -8443730.201 5  22799127.077
  22799125.718     -825096.988 1   -642931.733 5  23852557.219
  23852557.726    -7301930.570 2  -5689819.482 5  22587672.643
  22587672.038   -20338948.844 5 -15848527.513 8  20817872.900    20817872.190
 03  7 27  9 41 30.0000000  0 10 02 03 08 11 15 18 23 26 27 31
                  -4683597.501 1  -3649562.425 5  23747103.790
  23747100.080   -21748449.309 5 -16946840.864 8  20724961.903
  20724960.693    -9471140.663 3  -7380111.244 6  22401173.064
  22401172.416     -114864.664 1    -89505.684 5  24856697.952
  24856697.401   -15472919.756 4 -12056810.982 6  21832518.708
  21832516.775    -9571577.243 3  -7458371.186 5  22456262.149
  22456262.088   -10926345.237 2  -8514029.098 5  22781959.771
  22781957.806     -858321.587 1   -668821.162 5  23846234.760
  23846234.547    -7227740.302 2  -5632008.957 5  22601791.321
  22601790.106   -20373442.455 5 -15875405.594 8  20811308.948    20811308.281
 03  7 27  9 42  0.0000000  0 10 02 03 08 11 15 18 23 26 27 31
                  -4558893.747 2  -3552390.702 5  23770833.629
  23770830.573   -21714116.855 5 -16920088.245 8  20731495.106
  20731493.930    -9468921.325 3  -7378382.067 6  22401595.529
  22401595.088     -229662.794 1   -178958.733 5  24834853.051
  24834851.449   -15414954.368 4 -12011643.212 6  21843549.163
  21843547.641    -9582015.704 3  -7466505.075 5  22454275.491
  22454275.800   -11016087.329 2  -8583957.692 5  22764881.759
  22764880.466     -890983.679 1   -694271.934 5  23840019.501
  23840018.924    -7153060.292 2  -5573816.834 5  22616001.616
  22616001.303   -20407485.494 5 -15901932.803 8  20804830.956    20804830.196
 03  7 27  9 42 30.0000000  0 10 02 03 08 11 15 18 23 26 27 31
                  -4434022.534 2  -3455088.570 5  23794596.378
  23794593.658   -21679277.108 5 -16892940.555 8  20738124.998
  20738123.780    -9466089.240 3  -7376175.224 6  22402134.411
  22402133.813     -344379.006 1   -268347.768 5  24813022.412
  24813020.371   -15356501.653 4 -11966095.089 6  21854671.451
  21854670.022    -9591798.163 3  -7474127.558 5  22452413.872
  22452413.735   -11105338.672 2  -8653504.142 5  22747897.521
  22747896.543     -923069.848 1   -719274.630 5  23833913.754
  23833913.842    -7077877.886 2  -5515233.121 5  22630309.509
  22630307.868   -20441062.067 5 -15928096.363 8  20798441.385    20798440.886
 03  7 27  9 43  0.0000000  0 10 02 03 08 11 15 18 23 26 27 31
                  -4308989.161 2  -3357659.998 5  23818388.804
  23818386.678   -21643933.298 5 -16865399.944 8  20744850.687
  20744849.445    -9462647.988 3  -7373493.746 6  22402789.375
  22402788.551     -459014.347 1   -357673.664 5  24791208.081
  24791203.252   -15297568.572 4 -11920172.957 6  21865885.918
  21865884.665    -9600927.897 3  -7481241.332 5  22450676.206
  22450676.511   -11194099.241 2  -8722668.452 5  22731007.408
  22731006.213     -954580.155 1   -743828.296 5  23827918.745
  23827918.040    -7002199.878 2  -5456263.398 5  22644709.626
  22644709.330   -20474175.279 5 -15953899.120 8  20792140.395    20792139.807
 03  7 27  9 43 30.0000000  0 10 02 03 08 11 15 18 23 26 27 31
                  -4183820.703 2  -3260126.014 5  23842207.705
  23842204.946   -21608110.362 5 -16837485.654 8  20751667.243
  20751666.182    -9458622.323 3  -7370356.917 6  22403555.379
  22403554.474     -573591.609 1   -446954.313 4  24769404.226
  24769400.839   -15238181.503 4 -11873897.344 6  21877186.887
  21877185.732    -9609430.030 3  -7487866.497 5  22449058.243
  22449058.421   -11282389.050 2  -8791465.650 5  22714206.350
  22714204.831     -985537.140 1   -767950.145 5  23822026.105
  23822026.935    -6926053.142 2  -5396928.209 5  22659200.887
  22659199.321   -20506847.872 5 -15979358.349 8  20785923.045    20785922.585
 03  7 27  9 44  0.0000000  0 10 02 03 08 11 15 18 23 26 27 31
                  -4058499.419 2  -3162473.160 5  23866055.824
  23866052.823   -21571789.741 5 -16809184.046 8  20758578.990
  20758577.931    -9453991.070 3  -7366748.248 6  22404437.205
  22404435.879     -688087.922 1   -536171.994 4  24747616.028
  24747614.025   -15178320.988 4 -11827252.931 6  21888578.109
  21888576.850    -9617281.841 3  -7493984.786 5  22447564.280
  22447564.522   -11370184.770 2  -8859878.040 5  22697499.420
  22697497.699    -1015920.708 2   -791625.749 5  23816244.715
  23816244.708    -6849419.302 2  -5337213.494 5  22673782.649
  22673782.400   -20539058.391 5 -16004457.581 8  20779793.827    20779793.236
 03  7 27  9 44 30.0000000  0 10 02 03 08 11 15 18 23 26 27 31
                  -3933020.577 2  -3064697.324 5  23889933.785
  23889930.736   -21534964.853 5 -16780489.557 8  20765586.802
  20765585.492    -9448747.836 3  -7362662.602 6  22405434.773
  22405433.742     -802495.132 1   -625320.468 3  24725844.952
  24725842.490   -15117982.311 4 -11780235.889 6  21900060.214
  21900059.124    -9624477.464 3  -7499591.983 5  22446195.059
  22446195.307   -11457475.571 2  -8927896.592 5  22680888.534
  22680886.942    -1045721.953 1   -814847.494 5  23810574.285
  23810573.227    -6772295.046 2  -5277116.714 5  22688460.266
  22688458.259   -20570799.259 5 -16029190.800 8  20773753.784    20773753.125
 03  7 27  9 45  0.0000000  0  9 02 03 08 15 18 23 26 27 31
                  -3807399.126 1  -2966810.484 5  23913838.460
  23913835.204   -21497648.134 5 -16751411.645 8  20772687.982
  20772686.688    -9442904.916 3  -7358109.586 6  22406546.342
  22406545.768   -15057178.666 4 -11732856.276 6  21911630.624
  21911629.507    -9631027.668 3  -7504696.133 5  22444948.701
  22444949.205   -11544271.120 2  -8995529.371 5  22664371.624
  22664370.442    -1074951.968 1   -837624.188 5  23805011.874
  23805011.705    -6694694.454 2  -5216648.615 5  22703225.888
  22703225.691   -20602081.551 5 -16053566.686 8  20767801.056    20767800.359
 03  7 27  9 45 30.0000000  0 10 02 03 08 11 15 18 23 26 27 31
                  -3681654.749 1  -2868827.939 5  23937766.955
  23937763.554   -21459857.774 5 -16721964.608 8  20779879.286
  20779877.990    -9436479.539 3  -7353102.704 6  22407768.941
  22407768.045           -.35411          .48913  24682345.903
  24682342.823   -14995930.308 4 -11685130.586 6  21923286.167
  21923284.890    -9636949.168 3  -7509310.277 5  22443821.971
  22443822.277   -11630585.410 2  -9062787.292 5  22647946.726
  22647945.166    -1103626.086 1   -859967.507 5  23799555.640
  23799554.841    -6616637.566 2  -5155825.049 5  22718080.595
  22718079.012   -20632921.467 5 -16077597.842 8  20761932.499    20761931.650
 03  7 27  9 46  0.0000000  0  9 02 03 08 15 18 23 26 27 31
                  -3555776.016 1  -2770740.697 5  23961720.846
  23961717.283   -21421580.669 5 -16692138.137 8  20787162.971
  20787161.642    -9429458.091 3  -7347631.361 6  22409105.118
  22409104.555   -14934223.934 4 -11637047.575 6  21935028.399
  21935027.187    -9642228.556 3  -7513424.395 5  22442817.795
  22442817.977   -11716401.169 2  -9129656.874 5  22631616.585
  22631615.208    -1131729.831 1   -881866.423 5  23794206.639
  23794207.233    -6538113.863 2  -5094637.739 5  22733022.157
  22733021.438   -20663304.367 5 -16101272.880 8  20756150.826    20756150.003
 03  7 27  9 46 30.0000000  0 10 02 03 08 11 15 18 23 26 27 31
                  -3429762.431 1  -2672548.380 5  23985700.639
  23985697.864   -21382815.078 5 -16661931.117 8  20794539.733
  20794538.459    -9421838.139 3  -7341693.759 6  22410555.088
  22410554.436           -.19011         -.90715  24638905.520
  24638903.975   -14872059.275 4 -11588607.390 6  21946857.771
  21946856.667    -9646862.014 3  -7517035.138 5  22441936.338
  22441936.342   -11801711.950 2  -9196133.016 5  22615382.618
  22615381.189    -1159259.567 1   -903318.385 5  23788969.074
  23788968.091    -6459122.324 2  -5033085.977 5  22748054.367
  22748053.487   -20693226.138 5 -16124588.509 8  20750456.815    20750456.080
 03  7 27  9 47  0.0000000  0 11 02 03 08 11 15 18 23 26 27 28 31
                  -3303625.346 1  -2574259.920 5  24009704.324
  24009700.700   -21343570.880 5 -16631351.274 8  20802007.806
  20802006.438    -9413628.588 3  -7335296.826 6  22412117.334
  22412116.569     -114019.033 1    -88846.700 5  24617208.290
  24617206.786   -14809447.352 4 -11539818.755 6  21958772.240
  21958771.427    -9650857.358 3  -7520148.308 5  22441175.977
  22441175.902   -11886522.530 2  -9262218.979 5  22599243.393
  22599242.468    -1186222.462 1   -924328.762 5  23783838.768
  23783838.710    -6379674.977 2  -4971178.884 5  22763172.967
  22763171.715           -.61411         -.26615  24395098.521
  24395099.603   -20722694.909 5 -16147551.234 8  20744849.120    20744848.422
 03  7 27  9 47 30.0000000  0 11 02 03 08 11 15 18 23 26 27 28 31
                  -3177362.798 2  -2475873.831 5  24033731.148
  24033727.477   -21303843.574 5 -16600394.859 8  20809567.599
  20809566.251    -9404825.068 3  -7328437.043 6  22413792.668
  22413792.068     -227952.911 1   -177626.477 5  24595526.114
  24595525.566   -14746385.140 4 -11490679.127 6  21970772.299
  21970771.430    -9654211.163 3  -7522761.758 5  22440537.635
  22440537.721   -11970825.931 2  -9327909.757 5  22583201.015
  22583199.822    -1212612.051 1   -944892.023 5  23778816.081
  23778815.865    -6299770.283 2  -4908915.811 5  22778378.395
  22778377.505     -111101.490 1    -86572.528 5  24373956.212
  24373956.926   -20751705.480 5 -16170156.982 8  20739328.686    20739327.945
 03  7 27  9 48  0.0000000  0 11 02 03 08 11 15 18 23 26 27 28 31
                  -3050957.607 2  -2377376.528 5  24057785.720
  24057782.797   -21263614.966 5 -16569047.712 8  20817222.682
  20817221.428    -9395408.522 3  -7321099.561 6  22415584.578
  22415584.134     -341779.690 1   -266322.545 5  24573867.045
  24573864.593   -14682856.036 4 -11441175.952 6  21982861.494
  21982860.601    -9656903.453 3  -7524859.798 5  22440025.321
  22440025.769   -12054599.834 2  -9393188.070 5  22567259.466
  22567258.010    -1238408.049 1   -964992.500 5  23773907.500
  23773907.036    -6219391.627 2  -4846283.271 5  22793674.275
  22793672.817     -221996.738 1   -172984.454 5  24352854.238
  24352854.058   -20780237.538 5 -16192389.947 8  20733899.435    20733898.656
 03  7 27  9 48 30.0000000  0 11 02 03 08 11 15 18 23 26 27 28 31
                  -2924423.805 2  -2278778.997 5  24081864.616
  24081861.360   -21222898.527 5 -16537320.814 8  20824970.920
  20824969.564    -9385390.464 3  -7313293.313 6  22417491.190
  22417490.327     -455509.533 1   -354943.154 5  24552225.172
  24552221.632   -14618872.555 4 -11391318.539 6  21995036.983
  21995035.953    -9658944.950 3  -7526450.524 5  22439636.929
  22439637.202   -12137852.489 2  -9458060.372 5  22551416.898
  22551415.213    -1263621.756 1   -984639.538 5  23769108.282
  23769109.167    -6138552.164 2  -4783291.573 5  22809056.761
  22809056.104     -332695.513 1   -259243.248 5  24331788.879
  24331789.413   -20808301.124 5 -16214257.685 8  20728559.177    20728558.280
 03  7 27  9 49  0.0000000  0 11 02 03 08 11 15 18 23 26 27 28 31
                  -2797770.074 2  -2180087.901 5  24105966.314
  24105962.918   -21181700.404 5 -16505218.418 8  20832810.676
  20832809.452    -9374777.967 3  -7305023.867 6  22419510.659
  22419509.780     -569146.697 1   -443491.540 5  24530600.446
  24530598.594   -14554444.324 4 -11341114.973 6  22007297.645
  22007296.559    -9660341.900 3  -7527538.759 5  22439370.830
  22439371.110   -12220586.609 2  -9522528.390 5  22535672.847
  22535671.319    -1288258.020 1  -1003836.501 5  23764420.307
  23764420.093    -6057262.233 2  -4719948.703 5  22824526.628
  22824525.335     -443201.779 1   -345352.023 5  24310760.051
  24310761.205   -20835902.523 5 -16235765.344 8  20723306.848    20723306.010
 03  7 27  9 49 30.0000000  0 11 02 03 08 11 15 18 23 26 27 28 31
                  -2670993.151 2  -2081300.690 5  24130091.316
  24130087.163   -21140016.198 5 -16472737.316 8  20840743.002
  20840741.789    -9363565.444 3  -7296286.824 6  22421644.260
  22421643.526     -682683.476 1   -531961.725 5  24508995.097
  24508994.275   -14489566.277 4 -11290560.691 6  22019643.314
  22019642.687    -9661089.232 3  -7528120.947 5  22439228.543
  22439228.815   -12302793.581 2  -9586585.667 5  22520029.567
  22520027.990    -1312310.270 1  -1022578.526 5  23759843.519
  23759843.250    -5975518.084 2  -4656252.028 5  22840081.294
  22840080.276     -553507.175 1   -431304.229 5  24289769.296
  24289770.009   -20863034.833 5 -16256907.505 8  20718143.906    20718143.065
 03  7 27  9 50  0.0000000  0 11 02 03 08 11 15 18 23 26 27 28 31
                  -2544110.593 1  -1982431.154 5  24154236.368
  24154231.895   -21097861.606 5 -16439889.840 7  20848764.912
  20848763.667    -9351768.194 3  -7287094.204 6  22423889.109
  22423888.359     -796132.501 1   -620363.487 5  24487406.037
  24487404.184   -14424255.554 4 -11239669.210 6  22032071.643
  22032070.628    -9661201.583 3  -7528208.483 5  22439206.942
  22439207.461   -12384485.628 2  -9650242.037 5  22504484.139
  22504482.612    -1335792.313 1  -1040876.320 5  23755375.116
  23755374.945    -5893337.968 2  -4592215.596 5  22855720.324
  22855718.644     -663623.809 1   -517109.377 5  24268815.479
  24268815.625   -20889711.886 5 -16277694.866 8  20713067.302    20713066.558
 03  7 27  9 50 30.0000000  0 11 02 03 08 11 15 18 23 26 27 28 31
                  -2417109.126 1  -1883468.949 5  24178402.733
  24178399.959   -21055221.320 5 -16406663.571 8  20856879.118
  20856877.820    -9339370.931 3  -7277433.960 6  22426248.386
  22426247.536     -909475.789 1   -708682.817 5  24465837.299
  24465835.670   -14358498.789 3 -11188430.203 6  22044584.965
  22044583.825    -9660662.650 3  -7527788.327 5  22439309.256
  22439309.686   -12465643.170 2  -9713481.775 5  22489040.446
  22489039.264    -1358687.120 1  -1058716.444 5  23751018.193
  23751018.369    -5810709.442 2  -4527829.820 5  22871443.428
  22871442.584     -773534.455 1   -602754.188 5  24247900.035
  24247901.022   -20915917.310 5 -16298114.661 8  20708080.762    20708079.902
 03  7 27  9 51  0.0000000  0 11 02 03 08 11 15 18 23 26 27 28 31
                  -2290000.202 1  -1784423.030 5  24202592.111
  24202587.870   -21012105.333 5 -16373066.565 8  20865083.621
  20865082.322    -9326383.342 3  -7267313.960 6  22428719.975
  22428719.358    -1022720.747 1   -796925.638 5  24444287.993
  24444286.384   -14292306.635 3 -11136851.919 6  22057180.862
  22057179.583    -9659481.413 3  -7526867.640 5  22439533.919
  22439534.466   -12546271.729 2  -9776309.099 5  22473697.355
  22473695.986    -1381002.602 1  -1076105.061 5  23746772.322
  23746772.233    -5727642.992 2  -4463102.747 5  22887251.357
  22887250.200     -883244.158 1   -688242.225 5  24227023.689
  24227023.737   -20941659.086 5 -16318173.125 8  20703181.897    20703181.267
 03  7 27  9 51 30.0000000  0 11 02 03 08 11 15 18 23 26 27 28 31
                  -2162780.128 1  -1685290.539 5  24226800.908
  24226796.480   -20968509.559 5 -16339096.033 7  20873379.885
  20873378.451    -9312799.057 3  -7256728.830 6  22431305.026
  22431304.348    -1135859.080 1   -885085.371 5  24422757.997
  24422757.017   -14225675.850 3 -11084932.203 6  22069860.536
  22069859.263    -9657652.124 3  -7525442.131 5  22439881.959
  22439882.241   -12626364.368 2  -9838719.719 5  22458457.249
  22458455.355    -1402732.036 1  -1093037.095 5  23742637.514
  23742636.895    -5644136.499 2  -4398032.680 5  22903141.709
  22903140.571     -992744.954 1   -773567.502 5  24206185.646
  24206186.732   -20966930.570 5 -16337865.151 8  20698373.305    20698372.275
 03  7 27  9 52  0.0000000  0 11 02 03 08 11 15 18 23 26 27 28 31
                  -2035454.208 1  -1586075.615 5  24251029.887
  24251026.782   -20924438.106 5 -16304755.348 7  20881767.133
  20881765.496    -9298621.589 3  -7245681.405 6  22434002.944
  22434002.130    -1248891.373 1   -973162.384 5  24401248.602
  24401247.117   -14158610.213 3 -11032673.541 6  22082623.017
  22082621.502    -9655177.637 3  -7523514.006 5  22440353.047
  22440353.449   -12705917.245 2  -9900708.980 5  22443318.757
  22443316.881    -1423877.192 1  -1109513.916 5  23738613.472
  23738612.711    -5560194.739 2  -4332623.503 5  22919116.098
  22919114.540    -1102036.387 1   -858729.432 5  24185387.194
  24185388.090   -20991734.230 5 -16357192.968 8  20693653.154    20693652.499
 03  7 27  9 52 30.0000000  0 11 02 03 08 11 15 18 23 26 27 28 31
                  -1908031.352 1  -1486785.275 5  24275278.005
  24275274.267   -20879896.435 5 -16270047.852 7  20890243.379
  20890241.712    -9283858.127 3  -7234177.472 6  22436812.517
  22436811.504    -1361822.208 1  -1061160.426 5  24379758.468
  24379757.245   -14091118.055 3 -10980082.326 6  22095466.509
  22095465.053    -9652063.859 3  -7521087.694 5  22440945.470
  22440945.734   -12784934.953 2  -9962281.096 5  22428281.848
  22428280.184    -1444443.101 1  -1125539.259 5  23734700.866
  23734698.209    -5475828.196 2  -4266883.520 5  22935169.317
  22935168.713    -1211123.467 1   -943732.417 5  24164628.778
  24164630.086   -21016074.624 5 -16376159.612 8  20689021.833    20689020.824
 03  7 27  9 53  0.0000000  0 11 02 03 08 11 15 18 23 26 27 28 31
                  -1780508.689 1  -1387417.248 5  24299545.226
  24299541.603   -20834879.122 5 -16234968.733 7  20898809.239
  20898807.775    -9268503.532 3  -7222212.909 6  22439734.369
  22439733.556    -1474644.016 1  -1149073.448 5  24358289.771
  24358287.592   -14023196.755 3 -10927156.749 6  22108391.481
  22108389.766    -9648306.076 3  -7518159.656 5  22441660.631
  22441660.966   -12863408.668 2 -10023428.888 5  22413348.286
  22413346.943    -1464423.915 1  -1141108.626 5  23730897.143
  23730897.545    -5391032.475 2  -4200808.942 5  22951306.638
  22951304.802    -1319997.150 1  -1028568.954 5  24143910.787
  24143910.887   -21039945.927 5 -16394760.600 8  20684478.788    20684478.142
 03  7 27  9 53 30.0000000  0 11 02 03 08 11 15 18 23 26 27 28 31
                  -1652887.198 1  -1287972.119 5  24323830.528
  24323827.514   -20789389.159 5 -16199521.788 7  20907465.508
  20907464.025    -9252557.380 3  -7209787.327 6  22442768.969
  22442767.901    -1587353.297 1  -1236898.718 5  24336841.517
  24336840.507   -13954845.960 3 -10873895.880 6  22121397.708
  22121396.287    -9643903.642 3  -7514729.488 5  22442498.849
  22442498.449   -12941336.132 2 -10084151.497 5  22398519.307
  22398517.780    -1483817.610 1  -1156220.371 5  23727206.285
  23727205.819    -5305811.496 2  -4134402.980 5  22967522.570
  22967521.608    -1428654.567 1  -1113237.086 5  24123234.560
  24123235.306   -21063346.610 5 -16412994.838 8  20680026.368    20680025.037
 03  7 27  9 54  0.0000000  0 11 02 03 08 11 15 18 23 26 27 28 31
                  -1525169.255 1  -1188451.756 5  24348135.051
  24348130.824   -20743427.102 5 -16163707.310 7  20916211.955
  20916210.364    -9236020.465 3  -7196901.529 6  22445916.007
  22445914.817    -1699948.747 1  -1324635.345 5  24315414.308
  24315412.873   -13886068.751 3 -10820302.802 6  22134485.249
  22134483.983    -9638855.371 3  -7510795.847 5  22443459.338
  22443459.786   -13018713.352 2 -10144445.382 5  22383794.969
  22383793.064    -1502623.705 1  -1170874.472 5  23723624.523
  23723627.423    -5220166.541 2  -4067666.757 5  22983820.814
  22983819.321    -1537093.093 1  -1197734.537 5  24102598.960
  24102598.994   -21086275.852 5 -16430861.804 8  20675662.430    20675661.777
 03  7 27  9 54 30.0000000  0 11 02 03 08 11 15 18 23 26 27 28 31
                  -1397347.857 1  -1088850.657 5  24372457.807
  24372455.624   -20696983.330 5 -16127517.269 7  20925049.806
  20925048.335    -9218883.387 3  -7183548.004 6  22449177.289
  22449175.717    -1812418.533 1  -1412274.004 5  24294012.908
  24294010.769   -13816858.767 3 -10766373.031 6  22147655.474
  22147654.331    -9633152.370 3  -7506351.998 5  22444544.940
  22444545.063   -13095527.620 2 -10204300.591 5  22369177.462
  22369175.812    -1520831.799 1  -1185062.656 5  23720162.980
  23720163.302    -5134091.751 2  -4000595.360 5  23000199.668
  23000199.298    -1645300.519 1  -1282051.986 5  24082007.409
  24082008.327   -21108723.596 5 -16448353.686 8  20671391.492    20671390.263
 03  7 27  9 55  0.0000000  0 11 02 03 08 11 15 18 23 26 27 28 31
                  -1269439.864 1   -989182.121 5  24396797.407
  24396794.908   -20650073.809 5 -16090964.403 7  20933976.331
  20933974.960    -9201161.141 3  -7169738.403 6  22452549.260
  22452548.123    -1924774.947 1  -1499824.443 5  24272631.464
  24272629.433   -13747230.983 3 -10712117.582 6  22160905.393
  22160903.918    -9626808.124 3  -7501407.999 5  22445751.374
  22445751.701   -13171790.147 2 -10263725.866 5  22354664.944
  22354663.574    -1538454.938 1  -1198794.962 5  23716810.728
  23716809.929    -5047604.371 2  -3933202.551 5  23016658.414
  23016657.076    -1753288.323 1  -1366198.262 5  24061459.025
  24061459.779   -21130702.994 5 -16465480.568 8  20667208.459    20667207.808
 03  7 27  9 55 30.0000000  0 11 02 03 08 11 15 18 23 26 27 28 31
                  -1141433.923 1   -889437.248 5  24421157.258
  24421154.072   -20602685.978 5 -16054038.959 7  20942994.077
  20942992.727    -9182840.838 3  -7155462.801 6  22456035.726
  22456034.531    -2037002.357 1  -1587274.308 4  24251275.748
  24251274.870   -13677173.796 3 -10657527.324 6  22174236.436
  22174235.415    -9619810.852 3  -7495955.334 5  22447082.744
  22447082.981   -13247484.970 2 -10322709.145 5  22340260.911
  22340259.638    -1555478.669 1  -1212060.093 5  23713570.241
  23713569.804    -4960693.050 2  -3865479.442 5  23033197.086
  23033195.802    -1861040.283 1  -1450160.720 5  24040953.981
  24040954.746   -21152199.656 5 -16482231.209 8  20663118.346    20663117.258
 03  7 27  9 56  0.0000000  0 11 02 03 08 11 15 18 23 26 27 28 31
                  -1013333.927 1   -789619.085 5  24445533.365
  24445529.682   -20554821.934 5 -16016742.371 7  20952102.399
  20952101.023    -9163924.632 3  -7140722.967 6  22459635.202
  22459634.555    -2149100.127 1  -1674623.244 5  24229944.267
  24229943.347   -13606691.736 3 -10602606.441 6  22187648.968
  22187647.879    -9612162.418 3  -7489995.667 5  22448538.428
  22448538.887   -13322608.571 2 -10381246.703 5  22325965.226
  22325963.618    -1571903.763 1  -1224858.674 5  23710443.487
  23710444.201    -4873362.673 2  -3797429.842 5  23049815.089
  23049814.332    -1968555.811 1  -1533939.069 5  24020494.714
  24020494.910   -21173214.621 5 -16498606.602 8  20659118.920    20659118.308
 03  7 27  9 56 30.0000000  0 11 02 03 08 11 15 18 23 26 27 28 31
                   -885157.687 1   -689741.518 5  24469924.416
  24469922.186   -20506498.916 5 -15979088.411 7  20961298.228
  20961296.843    -9144428.479 3  -7125531.210 6  22463345.488
  22463344.204    -2261081.419 1  -1761881.451 5  24208634.562
  24208632.319   -13535800.672 3 -10547366.429 6  22201138.828
  22201137.845    -9603877.883 3  -7483540.435 5  22450114.984
  22450115.325   -13397175.851 2 -10439351.342 5  22311775.822
  22311773.760    -1587745.490 2  -1237202.933 5  23707429.185
  23707430.638    -4785631.855 2  -3729068.310 5  23066510.721
  23066509.208    -2075846.949 1  -1617542.472 5  24000076.458
  24000077.108   -21193762.327 5 -16514617.837 8  20655209.315    20655208.104
 03  7 27  9 57  0.0000000  0 11 02 03 08 11 15 18 23 26 27 28 31
                   -756899.499 1   -589800.109 5  24494331.812
  24494327.520   -20457707.178 5 -15941068.205 7  20970582.285
  20970581.182    -9124344.882 3  -7109881.646 6  22467167.240
  22467166.086    -2372935.704 1  -1849040.623 5  24187349.169
  24187348.250   -13464496.132 3 -10491804.541 6  22214707.918
  22214706.486    -9594947.618 3  -7476581.407 5  22451813.869
  22451814.436   -13471174.756 2 -10497013.139 5  22297694.397
  22297692.667    -1602994.239 2  -1249084.939 5  23704527.270
  23704528.560    -4697494.479 2  -3660389.932 5  23083281.574
  23083281.393    -2182903.449 1  -1700963.155 5  23979705.996
  23979706.030   -21213834.048 5 -16530258.198 8  20651389.214    20651388.615
 03  7 27  9 57 30.0000000  0 11 02 03 08 11 15 18 23 26 27 28 31
                   -628570.888 1   -489803.876 5  24518752.310
  24518748.051   -20408460.802 5 -15902694.572 7  20979953.769
  20979952.406    -9103683.544 3  -7093781.876 6  22471098.662
  22471097.719    -2484670.383 1  -1936106.476 5  24166086.869
  24166085.735   -13392788.651 3 -10435928.623 6  22228353.195
  22228352.099    -9585382.920 3  -7469128.317 5  22453633.976
  22453634.388   -13544610.164 2 -10554235.315 5  22283719.851
  22283718.429    -1617658.846 1  -1260511.895 5  23701737.445
  23701737.253    -4608963.465 2  -3591404.815 5  23100129.633
  23100127.750    -2289731.473 1  -1784205.637 5  23959376.097
  23959377.302   -21233438.202 5 -16545534.202 8  20647659.402    20647658.109
 03  7 27  9 58  0.0000000  0 11 02 03 08 11 15 18 23 26 27 28 31
                   -500167.657 1   -389749.512 5  24543186.839
  24543182.638   -20358752.117 5 -15863960.534 7  20989412.994
  20989411.609    -9082438.955 3  -7077227.623 6  22475141.422
  22475140.214    -2596276.884 1  -2023072.453 5  24144849.141
  24144847.273   -13320673.657 3 -10379735.129 6  22242076.139
  22242075.031    -9575177.215 3  -7461175.786 5  22455576.039
  22455576.622   -13617474.463 2 -10611012.850 5  22269854.530
  22269852.943    -1631731.755 1  -1271477.685 5  23699058.655
  23699059.437    -4520034.072 2  -3522109.224 5  23117051.107
  23117050.373    -2396322.325 1  -1867263.477 5  23939092.271
  23939093.433   -21252567.356 5 -16560440.006 8  20644018.741    20644018.021
 03  7 27  9 58 30.0000000  0 11 02 03 08 11 15 18 23 26 27 28 31
                   -371692.421 1   -289639.107 5  24567634.372
  24567629.533   -20308583.857 5 -15824868.885 7  20998960.310
  20998958.691    -9060612.119 3  -7060219.753 6  22479294.955
  22479293.992    -2707753.537 1  -2109937.274 5  24123635.079
  24123633.726   -13248154.607 3 -10323227.328 6  22255876.824
  22255875.495    -9564330.946 3  -7452724.028 5  22457639.962
  22457640.626   -13689763.927 2 -10667342.268 5  22256098.670
  22256096.657    -1645212.742 1  -1281982.224 5  23696494.192
  23696493.802    -4430710.683 2  -3452506.652 5  23134049.843
  23134048.393    -2502673.311 1  -1950134.275 5  23918855.390
  23918855.025   -21271221.407 5 -16574975.627 8  20640469.512    20640468.227
 03  7 27  9 59  0.0000000  0 11 02 03 08 11 15 18 23 26 27 28 31
                   -243142.252 1   -189470.180 5  24592097.141
  24592092.978   -20257950.438 5 -15785414.438 7  21008595.725
  21008594.094    -9038198.372 3  -7042754.534 6  22483560.202
  22483559.640    -2819093.098 1  -2196695.327 5  24102448.492
  24102447.191   -13175225.911 3 -10266399.579 6  22269754.411
  22269753.193    -9552840.205 3  -7443770.453 5  22459826.893
  22459827.594   -13761470.465 2 -10723217.187 5  22242452.751
  22242451.237    -1658096.440 1  -1292021.448 5  23694041.565
  23694041.795    -4340990.184 2  -3382594.541 5  23151122.492
  23151121.323    -2608776.962 1  -2032812.387 5  23898663.279
  23898664.396   -21289394.425 5 -16589136.351 8  20637010.707    20637009.955
